Wetterdaten: Mittwoch, 04.03.2015
Datum Zeit Temp. Aussen +5cm Feuchte Auss Luftdruck Regen Sonnenschein Regendauer Solar Windben
04.03.2015 00:00 2,9 C 1,1 C 90 % 1018,7 hPa 0,0 l/m 0 min 0 min 0 W/m 16,7 km/h (3 Bft)
04.03.2015 00:02 2,9 C 1,1 C 90 % 1018,7 hPa 0,0 l/m 0 min 0 min 0 W/m 20,9 km/h (4 Bft)
04.03.2015 00:06 2,9 C 1,1 C 90 % 1018,7 hPa 0,0 l/m 0 min 0 min 0 W/m 20,9 km/h (4 Bft)
04.03.2015 00:08 2,9 C 1,1 C 90 % 1018,7 hPa 0,0 l/m 0 min 0 min 0 W/m 23,0 km/h (4 Bft)
04.03.2015 00:10 2,9 C 1,1 C 90 % 1018,7 hPa 0,0 l/m 0 min 0 min 0 W/m 18,8 km/h (3 Bft)
04.03.2015 00:12 2,8 C 1,1 C 90 % 1018,7 hPa 0,0 l/m 0 min 0 min 0 W/m 20,9 km/h (4 Bft)
04.03.2015 00:14 2,9 C 1,1 C 90 % 1018,7 hPa 0,0 l/m 0 min 0 min 0 W/m 20,9 km/h (4 Bft)
04.03.2015 00:16 2,8 C 1,1 C 91 % 1018,7 hPa 0,0 l/m 0 min 0 min 0 W/m 25,1 km/h (4 Bft)
04.03.2015 00:18 2,8 C 1,1 C 91 % 1018,7 hPa 0,0 l/m 0 min 0 min 0 W/m 23,0 km/h (4 Bft)
04.03.2015 00:20 2,8 C 1,1 C 91 % 1018,7 hPa 0,0 l/m 0 min 0 min 0 W/m 20,9 km/h (4 Bft)
04.03.2015 00:22 2,8 C 1,1 C 91 % 1018,8 hPa 0,0 l/m 0 min 0 min 0 W/m 25,1 km/h (4 Bft)
04.03.2015 00:24 2,9 C 1,1 C 91 % 1018,8 hPa 0,0 l/m 0 min 0 min 0 W/m 23,0 km/h (4 Bft)
04.03.2015 00:26 2,9 C 1,1 C 91 % 1018,8 hPa 0,0 l/m 0 min 0 min 0 W/m 16,7 km/h (3 Bft)
04.03.2015 00:28 2,9 C 1,1 C 91 % 1018,8 hPa 0,0 l/m 0 min 0 min 0 W/m 20,9 km/h (4 Bft)
04.03.2015 00:30 2,9 C 1,1 C 91 % 1018,8 hPa 0,0 l/m 0 min 0 min 0 W/m 18,8 km/h (3 Bft)
04.03.2015 00:32 2,8 C 1,1 C 91 % 1018,8 hPa 0,0 l/m 0 min 0 min 0 W/m 20,9 km/h (4 Bft)
04.03.2015 00:34 2,9 C 1,1 C 91 % 1018,8 hPa 0,0 l/m 0 min 0 min 0 W/m 18,8 km/h (3 Bft)
04.03.2015 00:36 2,8 C 1,1 C 91 % 1019,0 hPa 0,0 l/m 0 min 0 min 0 W/m 20,9 km/h (4 Bft)
04.03.2015 00:38 2,8 C 1,1 C 91 % 1019,0 hPa 0,0 l/m 0 min 0 min 0 W/m 16,7 km/h (3 Bft)
04.03.2015 00:40 2,8 C 1,1 C 91 % 1018,9 hPa 0,0 l/m 0 min 0 min 0 W/m 23,0 km/h (4 Bft)
04.03.2015 00:42 2,8 C 1,1 C 91 % 1018,8 hPa 0,0 l/m 0 min 0 min 0 W/m 18,8 km/h (3 Bft)
04.03.2015 00:44 2,8 C 1,1 C 91 % 1018,8 hPa 0,0 l/m 0 min 0 min 0 W/m 18,8 km/h (3 Bft)
04.03.2015 00:46 2,8 C 1,1 C 91 % 1018,9 hPa 0,0 l/m 0 min 0 min 0 W/m 27,2 km/h (4 Bft)
04.03.2015 00:48 2,8 C 1,1 C 91 % 1018,9 hPa 0,0 l/m 0 min 0 min 0 W/m 20,9 km/h (4 Bft)
04.03.2015 00:50 2,8 C 1,1 C 91 % 1018,9 hPa 0,0 l/m 0 min 0 min 0 W/m 25,1 km/h (4 Bft)
04.03.2015 00:52 2,8 C 1,1 C 91 % 1018,9 hPa 0,0 l/m 0 min 0 min 0 W/m 23,0 km/h (4 Bft)
04.03.2015 00:54 2,8 C 1,1 C 91 % 1018,9 hPa 0,0 l/m 0 min 0 min 0 W/m 23,0 km/h (4 Bft)
04.03.2015 00:56 2,8 C 1,1 C 91 % 1018,9 hPa 0,0 l/m 0 min 0 min 0 W/m 23,0 km/h (4 Bft)
04.03.2015 00:58 2,8 C 1,1 C 92 % 1019,0 hPa 0,0 l/m 0 min 0 min 0 W/m 20,9 km/h (4 Bft)
04.03.2015 01:00 2,8 C 1,1 C 92 % 1019,0 hPa 0,0 l/m 0 min 0 min 0 W/m 23,0 km/h (4 Bft)
04.03.2015 01:02 2,8 C 1,1 C 92 % 1019,0 hPa 0,0 l/m 0 min 0 min 0 W/m 18,8 km/h (3 Bft)
04.03.2015 01:04 2,8 C 1,1 C 92 % 1019,0 hPa 0,0 l/m 0 min 0 min 0 W/m 23,0 km/h (4 Bft)
04.03.2015 01:06 2,8 C 1,1 C 92 % 1019,0 hPa 0,0 l/m 0 min 0 min 0 W/m 20,9 km/h (4 Bft)
04.03.2015 01:08 2,8 C 1,1 C 92 % 1019,1 hPa 0,0 l/m 0 min 0 min 0 W/m 20,9 km/h (4 Bft)
04.03.2015 01:10 2,8 C 1,1 C 92 % 1019,2 hPa 0,0 l/m 0 min 0 min 0 W/m 14,6 km/h (3 Bft)
04.03.2015 01:12 2,8 C 1,1 C 92 % 1019,1 hPa 0,0 l/m 0 min 0 min 0 W/m 12,6 km/h (3 Bft)
04.03.2015 01:14 2,8 C 1,1 C 92 % 1019,1 hPa 0,0 l/m 0 min 0 min 0 W/m 20,9 km/h (4 Bft)
04.03.2015 01:16 2,8 C 1,1 C 92 % 1019,1 hPa 0,0 l/m 0 min 0 min 0 W/m 18,8 km/h (3 Bft)
04.03.2015 01:18 2,8 C 0,6 C 92 % 1019,2 hPa 0,0 l/m 0 min 0 min 0 W/m 16,7 km/h (3 Bft)
04.03.2015 01:20 2,7 C 0,6 C 92 % 1019,2 hPa 0,0 l/m 0 min 0 min 0 W/m 12,6 km/h (3 Bft)
04.03.2015 01:22 2,7 C 0,6 C 92 % 1019,2 hPa 0,0 l/m 0 min 0 min 0 W/m 12,6 km/h (3 Bft)
04.03.2015 01:24 2,7 C 0,6 C 92 % 1019,2 hPa 0,0 l/m 0 min 0 min 0 W/m 12,6 km/h (3 Bft)
04.03.2015 01:26 2,7 C 0,6 C 91 % 1019,2 hPa 0,0 l/m 0 min 0 min 0 W/m 20,9 km/h (4 Bft)
04.03.2015 01:28 2,7 C 0,6 C 91 % 1019,2 hPa 0,0 l/m 0 min 0 min 0 W/m 20,9 km/h (4 Bft)
04.03.2015 01:30 2,7 C 0,6 C 91 % 1019,2 hPa 0,0 l/m 0 min 0 min 0 W/m 10,5 km/h (2 Bft)
04.03.2015 01:32 2,7 C 0,6 C 91 % 1019,3 hPa 0,0 l/m 0 min 0 min 0 W/m 12,6 km/h (3 Bft)
04.03.2015 01:34 2,6 C 0,6 C 91 % 1019,3 hPa 0,0 l/m 0 min 0 min 0 W/m 16,7 km/h (3 Bft)
04.03.2015 01:36 2,6 C 0,6 C 91 % 1019,3 hPa 0,0 l/m 0 min 0 min 0 W/m 20,9 km/h (4 Bft)
04.03.2015 01:38 2,6 C 0,6 C 91 % 1019,3 hPa 0,0 l/m 0 min 0 min 0 W/m 18,8 km/h (3 Bft)
04.03.2015 01:40 2,6 C 0,6 C 91 % 1019,3 hPa 0,0 l/m 0 min 0 min 0 W/m 16,7 km/h (3 Bft)
04.03.2015 01:42 2,6 C 0,6 C 91 % 1019,3 hPa 0,0 l/m 0 min 0 min 0 W/m 16,7 km/h (3 Bft)
04.03.2015 01:44 2,6 C 0,6 C 91 % 1019,3 hPa 0,0 l/m 0 min 0 min 0 W/m 16,7 km/h (3 Bft)
04.03.2015 01:46 2,5 C 0,6 C 91 % 1019,4 hPa 0,0 l/m 0 min 0 min 0 W/m 18,8 km/h (3 Bft)
04.03.2015 01:48 2,5 C 0,6 C 91 % 1019,5 hPa 0,0 l/m 0 min 0 min 0 W/m 14,6 km/h (3 Bft)
04.03.2015 01:50 2,5 C 0,6 C 91 % 1019,4 hPa 0,0 l/m 0 min 0 min 0 W/m 14,6 km/h (3 Bft)
04.03.2015 01:52 2,4 C 0,6 C 91 % 1019,4 hPa 0,0 l/m 0 min 0 min 0 W/m 14,6 km/h (3 Bft)
04.03.2015 01:54 2,4 C 0,6 C 91 % 1019,4 hPa 0,0 l/m 0 min 0 min 0 W/m 20,9 km/h (4 Bft)
04.03.2015 01:56 2,4 C 0,6 C 91 % 1019,4 hPa 0,0 l/m 0 min 0 min 0 W/m 16,7 km/h (3 Bft)
04.03.2015 01:58 2,4 C 0,6 C 91 % 1019,5 hPa 0,0 l/m 0 min 0 min 0 W/m 14,6 km/h (3 Bft)
04.03.2015 02:00 2,4 C 0,6 C 91 % 1019,5 hPa 0,0 l/m 0 min 0 min 0 W/m 14,6 km/h (3 Bft)
04.03.2015 02:02 2,4 C 0,6 C 91 % 1019,5 hPa 0,0 l/m 0 min 0 min 0 W/m 14,6 km/h (3 Bft)
04.03.2015 02:04 2,4 C 0,6 C 91 % 1019,5 hPa 0,0 l/m 0 min 0 min 0 W/m 16,7 km/h (3 Bft)
04.03.2015 02:06 2,4 C 0,6 C 91 % 1019,5 hPa 0,0 l/m 0 min 0 min 0 W/m 14,6 km/h (3 Bft)
04.03.2015 02:08 2,3 C 0,6 C 91 % 1019,6 hPa 0,0 l/m 0 min 0 min 0 W/m 14,6 km/h (3 Bft)
04.03.2015 02:10 2,3 C 0,6 C 91 % 1019,5 hPa 0,0 l/m 0 min 0 min 0 W/m 18,8 km/h (3 Bft)
04.03.2015 02:12 2,3 C 0,6 C 91 % 1019,6 hPa 0,0 l/m 0 min 0 min 0 W/m 18,8 km/h (3 Bft)
04.03.2015 02:14 2,3 C 0,6 C 91 % 1019,6 hPa 0,0 l/m 0 min 0 min 0 W/m 18,8 km/h (3 Bft)
04.03.2015 02:16 2,3 C 0,6 C 91 % 1019,6 hPa 0,0 l/m 0 min 0 min 0 W/m 16,7 km/h (3 Bft)
04.03.2015 02:18 2,3 C 0,6 C 91 % 1019,6 hPa 0,0 l/m 0 min 0 min 0 W/m 14,6 km/h (3 Bft)
04.03.2015 02:20 2,3 C 0,6 C 91 % 1019,7 hPa 0,0 l/m 0 min 0 min 0 W/m 16,7 km/h (3 Bft)
04.03.2015 02:22 2,3 C 0,6 C 90 % 1019,7 hPa 0,0 l/m 0 min 0 min 0 W/m 18,8 km/h (3 Bft)
04.03.2015 02:24 2,3 C 0,6 C 90 % 1019,7 hPa 0,0 l/m 0 min 0 min 0 W/m 16,7 km/h (3 Bft)
04.03.2015 02:26 2,3 C 0,6 C 90 % 1019,7 hPa 0,0 l/m 0 min 0 min 0 W/m 12,6 km/h (3 Bft)
04.03.2015 02:28 2,3 C 0,6 C 90 % 1019,7 hPa 0,0 l/m 0 min 0 min 0 W/m 14,6 km/h (3 Bft)
04.03.2015 02:30 2,3 C 0,6 C 90 % 1019,8 hPa 0,0 l/m 0 min 0 min 0 W/m 14,6 km/h (3 Bft)
04.03.2015 02:32 2,3 C 0,6 C 90 % 1019,8 hPa 0,0 l/m 0 min 0 min 0 W/m 18,8 km/h (3 Bft)
04.03.2015 02:34 2,3 C 0,6 C 90 % 1019,7 hPa 0,0 l/m 0 min 0 min 0 W/m 16,7 km/h (3 Bft)
04.03.2015 02:36 2,3 C 0,6 C 90 % 1019,8 hPa 0,0 l/m 0 min 0 min 0 W/m 23,0 km/h (4 Bft)
04.03.2015 02:38 2,3 C 0,6 C 90 % 1019,8 hPa 0,0 l/m 0 min 0 min 0 W/m 18,8 km/h (3 Bft)
04.03.2015 02:40 2,3 C 0,6 C 90 % 1019,8 hPa 0,0 l/m 0 min 0 min 0 W/m 23,0 km/h (4 Bft)
04.03.2015 02:42 2,3 C 0,6 C 90 % 1019,9 hPa 0,0 l/m 0 min 0 min 0 W/m 16,7 km/h (3 Bft)
04.03.2015 02:44 2,3 C 0,6 C 90 % 1019,9 hPa 0,0 l/m 0 min 0 min 0 W/m 20,9 km/h (4 Bft)
04.03.2015 02:46 2,3 C 0,6 C 90 % 1020,0 hPa 0,0 l/m 0 min 0 min 0 W/m 20,9 km/h (4 Bft)
04.03.2015 02:48 2,3 C 0,6 C 90 % 1019,9 hPa 0,0 l/m 0 min 0 min 0 W/m 20,9 km/h (4 Bft)
04.03.2015 02:50 2,3 C 0,6 C 90 % 1020,0 hPa 0,0 l/m 0 min 0 min 0 W/m 20,9 km/h (4 Bft)
04.03.2015 02:52 2,3 C 0,6 C 90 % 1020,1 hPa 0,0 l/m 0 min 0 min 0 W/m 12,6 km/h (3 Bft)
04.03.2015 02:54 2,3 C 0,6 C 90 % 1020,0 hPa 0,0 l/m 0 min 0 min 0 W/m 20,9 km/h (4 Bft)
04.03.2015 02:56 2,3 C 0,6 C 90 % 1020,0 hPa 0,0 l/m 0 min 0 min 0 W/m 20,9 km/h (4 Bft)
04.03.2015 02:58 2,3 C 0,6 C 90 % 1020,1 hPa 0,0 l/m 0 min 0 min 0 W/m 18,8 km/h (3 Bft)
04.03.2015 03:00 2,3 C 0,6 C 90 % 1020,1 hPa 0,0 l/m 0 min 0 min 0 W/m 18,8 km/h (3 Bft)
04.03.2015 03:02 2,3 C 0,6 C 90 % 1020,1 hPa 0,0 l/m 0 min 0 min 0 W/m 25,1 km/h (4 Bft)
04.03.2015 03:04 2,3 C 0,6 C 90 % 1020,1 hPa 0,0 l/m 0 min 0 min 0 W/m 20,9 km/h (4 Bft)
04.03.2015 03:06 2,3 C 0,6 C 90 % 1020,0 hPa 0,0 l/m 0 min 0 min 0 W/m 20,9 km/h (4 Bft)
04.03.2015 03:08 2,3 C 0,6 C 90 % 1020,1 hPa 0,0 l/m 0 min 0 min 0 W/m 18,8 km/h (3 Bft)
04.03.2015 03:10 2,3 C 0,6 C 90 % 1020,1 hPa 0,0 l/m 0 min 0 min 0 W/m 20,9 km/h (4 Bft)
04.03.2015 03:12 2,3 C 0,6 C 90 % 1020,1 hPa 0,0 l/m 0 min 0 min 0 W/m 18,8 km/h (3 Bft)
04.03.2015 03:14 2,3 C 0,6 C 90 % 1020,1 hPa 0,0 l/m 0 min 0 min 0 W/m 18,8 km/h (3 Bft)
04.03.2015 03:16 2,3 C 0,6 C 90 % 1020,2 hPa 0,0 l/m 0 min 0 min 0 W/m 12,6 km/h (3 Bft)
04.03.2015 03:18 2,3 C 0,6 C 90 % 1020,2 hPa 0,0 l/m 0 min 0 min 0 W/m 16,7 km/h (3 Bft)
04.03.2015 03:20 2,3 C 0,6 C 90 % 1020,2 hPa 0,0 l/m 0 min 0 min 0 W/m 16,7 km/h (3 Bft)
04.03.2015 03:22 2,3 C 0,6 C 90 % 1020,1 hPa 0,0 l/m 0 min 0 min 0 W/m 18,8 km/h (3 Bft)
04.03.2015 03:24 2,3 C 0,6 C 91 % 1020,1 hPa 0,0 l/m 0 min 0 min 0 W/m 14,6 km/h (3 Bft)
04.03.2015 03:26 2,3 C 0,6 C 91 % 1020,1 hPa 0,0 l/m 0 min 0 min 0 W/m 20,9 km/h (4 Bft)
04.03.2015 03:28 2,3 C 0,6 C 91 % 1020,1 hPa 0,0 l/m 0 min 0 min 0 W/m 14,6 km/h (3 Bft)
04.03.2015 03:30 2,3 C 0,6 C 91 % 1020,1 hPa 0,0 l/m 0 min 0 min 0 W/m 16,7 km/h (3 Bft)
04.03.2015 03:32 2,3 C 0,6 C 91 % 1020,1 hPa 0,0 l/m 0 min 0 min 0 W/m 14,6 km/h (3 Bft)
04.03.2015 03:34 2,3 C 0,6 C 91 % 1020,2 hPa 0,0 l/m 0 min 0 min 0 W/m 16,7 km/h (3 Bft)
04.03.2015 03:36 2,3 C 0,6 C 91 % 1020,2 hPa 0,0 l/m 0 min 0 min 0 W/m 20,9 km/h (4 Bft)
04.03.2015 03:38 2,3 C 0,6 C 91 % 1020,2 hPa 0,0 l/m 0 min 0 min 0 W/m 18,8 km/h (3 Bft)
04.03.2015 03:40 2,3 C 0,6 C 91 % 1020,2 hPa 0,0 l/m 0 min 0 min 0 W/m 18,8 km/h (3 Bft)
04.03.2015 03:42 2,2 C 0,6 C 91 % 1020,2 hPa 0,0 l/m 0 min 0 min 0 W/m 14,6 km/h (3 Bft)
04.03.2015 03:44 2,2 C 0,6 C 91 % 1020,2 hPa 0,0 l/m 0 min 0 min 0 W/m 16,7 km/h (3 Bft)
04.03.2015 03:46 2,2 C 0,6 C 91 % 1020,2 hPa 0,0 l/m 0 min 0 min 0 W/m 14,6 km/h (3 Bft)
04.03.2015 03:48 2,2 C 0,6 C 91 % 1020,3 hPa 0,0 l/m 0 min 0 min 0 W/m 12,6 km/h (3 Bft)
04.03.2015 03:50 2,2 C 0,6 C 91 % 1020,2 hPa 0,0 l/m 0 min 0 min 0 W/m 16,7 km/h (3 Bft)
04.03.2015 03:52 2,2 C 0,6 C 91 % 1020,3 hPa 0,0 l/m 0 min 0 min 0 W/m 16,7 km/h (3 Bft)
04.03.2015 03:54 2,2 C 0,6 C 91 % 1020,3 hPa 0,0 l/m 0 min 0 min 0 W/m 16,7 km/h (3 Bft)
04.03.2015 03:56 2,2 C 0,6 C 91 % 1020,3 hPa 0,0 l/m 0 min 0 min 0 W/m 18,8 km/h (3 Bft)
04.03.2015 03:58 2,2 C 0,6 C 91 % 1020,4 hPa 0,0 l/m 0 min 0 min 0 W/m 16,7 km/h (3 Bft)
04.03.2015 04:00 2,2 C 0,6 C 92 % 1020,3 hPa 0,0 l/m 0 min 0 min 0 W/m 18,8 km/h (3 Bft)
04.03.2015 04:02 2,2 C 0,6 C 92 % 1020,4 hPa 0,0 l/m 0 min 0 min 0 W/m 18,8 km/h (3 Bft)
04.03.2015 04:04 2,2 C 0,6 C 92 % 1020,3 hPa 0,0 l/m 0 min 0 min 0 W/m 16,7 km/h (3 Bft)
04.03.2015 04:06 2,2 C 0,6 C 92 % 1020,3 hPa 0,0 l/m 0 min 0 min 0 W/m 23,0 km/h (4 Bft)
04.03.2015 04:08 2,2 C 0,6 C 92 % 1020,3 hPa 0,0 l/m 0 min 0 min 0 W/m 25,1 km/h (4 Bft)
04.03.2015 04:10 2,2 C 0,6 C 92 % 1020,4 hPa 0,0 l/m 0 min 0 min 0 W/m 18,8 km/h (3 Bft)
04.03.2015 04:12 2,2 C 0,6 C 92 % 1020,4 hPa 0,0 l/m 0 min 0 min 0 W/m 18,8 km/h (3 Bft)
04.03.2015 04:14 2,2 C 0,6 C 92 % 1020,5 hPa 0,0 l/m 0 min 0 min 0 W/m 18,8 km/h (3 Bft)
04.03.2015 04:16 2,2 C 0,6 C 92 % 1020,4 hPa 0,0 l/m 0 min 0 min 0 W/m 16,7 km/h (3 Bft)
04.03.2015 04:18 2,2 C 0,6 C 92 % 1020,4 hPa 0,0 l/m 0 min 0 min 0 W/m 18,8 km/h (3 Bft)
04.03.2015 04:20 2,2 C 0,6 C 92 % 1020,4 hPa 0,0 l/m 0 min 0 min 0 W/m 16,7 km/h (3 Bft)
04.03.2015 04:22 2,2 C 0,6 C 92 % 1020,5 hPa 0,0 l/m 0 min 0 min 0 W/m 18,8 km/h (3 Bft)
04.03.2015 04:24 2,2 C 0,6 C 92 % 1020,4 hPa 0,0 l/m 0 min 0 min 0 W/m 20,9 km/h (4 Bft)
04.03.2015 04:26 2,2 C 0,6 C 92 % 1020,4 hPa 0,0 l/m 0 min 0 min 0 W/m 16,7 km/h (3 Bft)
04.03.2015 04:28 2,2 C 0,6 C 92 % 1020,4 hPa 0,0 l/m 0 min 0 min 0 W/m 18,8 km/h (3 Bft)
04.03.2015 04:30 2,2 C 0,6 C 92 % 1020,4 hPa 0,0 l/m 0 min 0 min 0 W/m 18,8 km/h (3 Bft)
04.03.2015 04:32 2,2 C 0,6 C 92 % 1020,4 hPa 0,0 l/m 0 min 0 min 0 W/m 16,7 km/h (3 Bft)
04.03.2015 04:34 2,2 C 0,6 C 92 % 1020,4 hPa 0,0 l/m 0 min 0 min 0 W/m 16,7 km/h (3 Bft)
04.03.2015 04:36 2,1 C 0,6 C 92 % 1020,5 hPa 0,0 l/m 0 min 0 min 0 W/m 18,8 km/h (3 Bft)
04.03.2015 04:38 2,1 C 0,6 C 92 % 1020,5 hPa 0,0 l/m 0 min 0 min 0 W/m 20,9 km/h (4 Bft)
04.03.2015 04:40 2,1 C 0,6 C 92 % 1020,4 hPa 0,0 l/m 0 min 0 min 0 W/m 20,9 km/h (4 Bft)
04.03.2015 04:42 2,1 C 0,6 C 92 % 1020,4 hPa 0,0 l/m 0 min 0 min 0 W/m 20,9 km/h (4 Bft)
04.03.2015 04:44 2,1 C 0,6 C 92 % 1020,5 hPa 0,0 l/m 0 min 0 min 0 W/m 14,6 km/h (3 Bft)
04.03.2015 04:46 2,1 C 0,6 C 92 % 1020,4 hPa 0,0 l/m 0 min 0 min 0 W/m 18,8 km/h (3 Bft)
04.03.2015 04:48 2,1 C 0,6 C 92 % 1020,5 hPa 0,0 l/m 0 min 0 min 0 W/m 18,8 km/h (3 Bft)
04.03.2015 04:50 2,1 C 0,6 C 92 % 1020,5 hPa 0,0 l/m 0 min 0 min 0 W/m 16,7 km/h (3 Bft)
04.03.2015 04:52 2,1 C 0,6 C 92 % 1020,6 hPa 0,0 l/m 0 min 0 min 0 W/m 20,9 km/h (4 Bft)
04.03.2015 04:54 2,1 C 0,6 C 92 % 1020,6 hPa 0,0 l/m 0 min 0 min 0 W/m 16,7 km/h (3 Bft)
04.03.2015 04:56 2,1 C 0,6 C 92 % 1020,6 hPa 0,0 l/m 0 min 0 min 0 W/m 20,9 km/h (4 Bft)
04.03.2015 04:58 2,1 C 0,6 C 92 % 1020,7 hPa 0,0 l/m 0 min 0 min 0 W/m 18,8 km/h (3 Bft)
04.03.2015 05:00 2,0 C 0,6 C 92 % 1020,6 hPa 0,0 l/m 0 min 0 min 0 W/m 16,7 km/h (3 Bft)
04.03.2015 05:02 2,0 C 0,6 C 92 % 1020,5 hPa 0,0 l/m 0 min 0 min 0 W/m 16,7 km/h (3 Bft)
04.03.2015 05:04 2,0 C 0,6 C 92 % 1020,5 hPa 0,0 l/m 0 min 0 min 0 W/m 16,7 km/h (3 Bft)
04.03.2015 05:06 2,0 C 0,6 C 92 % 1020,6 hPa 0,0 l/m 0 min 0 min 0 W/m 18,8 km/h (3 Bft)
04.03.2015 05:08 2,0 C 0,6 C 92 % 1020,5 hPa 0,0 l/m 0 min 0 min 0 W/m 18,8 km/h (3 Bft)
04.03.2015 05:10 2,0 C 0,6 C 92 % 1020,5 hPa 0,0 l/m 0 min 0 min 0 W/m 16,7 km/h (3 Bft)
04.03.2015 05:12 1,9 C 0,6 C 92 % 1020,5 hPa 0,0 l/m 0 min 0 min 0 W/m 14,6 km/h (3 Bft)
04.03.2015 05:14 1,9 C 0,6 C 92 % 1020,5 hPa 0,0 l/m 0 min 0 min 0 W/m 16,7 km/h (3 Bft)
04.03.2015 05:16 1,9 C 0,6 C 92 % 1020,5 hPa 0,0 l/m 0 min 0 min 0 W/m 14,6 km/h (3 Bft)
04.03.2015 05:18 1,9 C 0,0 C 92 % 1020,5 hPa 0,0 l/m 0 min 0 min 0 W/m 18,8 km/h (3 Bft)
04.03.2015 05:20 1,9 C 0,0 C 92 % 1020,5 hPa 0,0 l/m 0 min 0 min 0 W/m 14,6 km/h (3 Bft)
04.03.2015 05:22 1,9 C 0,0 C 92 % 1020,5 hPa 0,0 l/m 0 min 0 min 0 W/m 16,7 km/h (3 Bft)
04.03.2015 05:24 1,9 C 0,0 C 92 % 1020,6 hPa 0,0 l/m 0 min 0 min 0 W/m 14,6 km/h (3 Bft)
04.03.2015 05:26 1,9 C 0,0 C 92 % 1020,6 hPa 0,0 l/m 0 min 0 min 0 W/m 20,9 km/h (4 Bft)
04.03.2015 05:28 1,9 C 0,0 C 92 % 1020,6 hPa 0,0 l/m 0 min 0 min 0 W/m 20,9 km/h (4 Bft)
04.03.2015 05:30 1,9 C 0,0 C 92 % 1020,6 hPa 0,0 l/m 0 min 0 min 0 W/m 14,6 km/h (3 Bft)
04.03.2015 05:32 1,8 C 0,0 C 92 % 1020,6 hPa 0,0 l/m 0 min 0 min 0 W/m 20,9 km/h (4 Bft)
04.03.2015 05:34 1,8 C 0,0 C 92 % 1020,6 hPa 0,0 l/m 0 min 0 min 0 W/m 16,7 km/h (3 Bft)
04.03.2015 05:36 1,8 C 0,0 C 92 % 1020,6 hPa 0,0 l/m 0 min 0 min 0 W/m 12,6 km/h (3 Bft)
04.03.2015 05:38 1,8 C 0,0 C 92 % 1020,7 hPa 0,0 l/m 0 min 0 min 0 W/m 16,7 km/h (3 Bft)
04.03.2015 05:40 1,8 C 0,0 C 92 % 1020,7 hPa 0,0 l/m 0 min 0 min 0 W/m 18,8 km/h (3 Bft)
04.03.2015 05:42 1,8 C 0,0 C 92 % 1020,8 hPa 0,0 l/m 0 min 0 min 0 W/m 10,5 km/h (2 Bft)
04.03.2015 05:44 1,8 C 0,0 C 92 % 1020,8 hPa 0,0 l/m 0 min 0 min 0 W/m 14,6 km/h (3 Bft)
04.03.2015 05:46 1,8 C 0,0 C 92 % 1020,9 hPa 0,0 l/m 0 min 0 min 0 W/m 18,8 km/h (3 Bft)
04.03.2015 05:48 1,8 C 0,0 C 92 % 1020,9 hPa 0,0 l/m 0 min 0 min 0 W/m 23,0 km/h (4 Bft)
04.03.2015 05:50 1,7 C 0,0 C 92 % 1020,9 hPa 0,0 l/m 0 min 0 min 0 W/m 14,6 km/h (3 Bft)
04.03.2015 05:52 1,7 C 0,0 C 92 % 1020,9 hPa 0,0 l/m 0 min 0 min 0 W/m 20,9 km/h (4 Bft)
04.03.2015 05:54 1,7 C 0,0 C 92 % 1020,9 hPa 0,0 l/m 0 min 0 min 0 W/m 12,6 km/h (3 Bft)
04.03.2015 05:56 1,7 C 0,0 C 92 % 1021,0 hPa 0,0 l/m 0 min 0 min 0 W/m 16,7 km/h (3 Bft)
04.03.2015 05:58 1,7 C 0,0 C 92 % 1021,0 hPa 0,0 l/m 0 min 0 min 0 W/m 20,9 km/h (4 Bft)
04.03.2015 06:00 1,7 C 0,0 C 92 % 1021,1 hPa 0,0 l/m 0 min 0 min 0 W/m 16,7 km/h (3 Bft)
04.03.2015 06:02 1,7 C 0,0 C 92 % 1021,1 hPa 0,0 l/m 0 min 0 min 0 W/m 14,6 km/h (3 Bft)
04.03.2015 06:04 1,7 C 0,0 C 92 % 1021,1 hPa 0,0 l/m 0 min 0 min 0 W/m 12,6 km/h (3 Bft)
04.03.2015 06:06 1,7 C 0,0 C 92 % 1021,1 hPa 0,0 l/m 0 min 0 min 0 W/m 18,8 km/h (3 Bft)
04.03.2015 06:08 1,7 C 0,0 C 92 % 1021,2 hPa 0,0 l/m 0 min 0 min 0 W/m 14,6 km/h (3 Bft)
04.03.2015 06:10 1,7 C 0,0 C 92 % 1021,1 hPa 0,0 l/m 0 min 0 min 0 W/m 10,5 km/h (2 Bft)
04.03.2015 06:12 1,7 C 0,0 C 92 % 1021,2 hPa 0,0 l/m 0 min 0 min 0 W/m 14,6 km/h (3 Bft)
04.03.2015 06:14 1,6 C 0,0 C 92 % 1021,1 hPa 0,0 l/m 0 min 0 min 0 W/m 8,4 km/h (2 Bft)
04.03.2015 06:16 1,6 C 0,0 C 92 % 1021,1 hPa 0,0 l/m 0 min 0 min 0 W/m 8,4 km/h (2 Bft)
04.03.2015 06:18 1,6 C 0,0 C 92 % 1021,2 hPa 0,0 l/m 0 min 0 min 0 W/m 14,6 km/h (3 Bft)
04.03.2015 06:20 1,6 C 0,0 C 92 % 1021,3 hPa 0,0 l/m 0 min 0 min 0 W/m 16,7 km/h (3 Bft)
04.03.2015 06:22 1,6 C 0,0 C 92 % 1021,3 hPa 0,0 l/m 0 min 0 min 0 W/m 23,0 km/h (4 Bft)
04.03.2015 06:24 1,6 C 0,0 C 92 % 1021,3 hPa 0,0 l/m 0 min 0 min 0 W/m 20,9 km/h (4 Bft)
04.03.2015 06:26 1,6 C 0,0 C 92 % 1021,3 hPa 0,0 l/m 0 min 0 min 0 W/m 16,7 km/h (3 Bft)
04.03.2015 06:28 1,6 C 0,0 C 92 % 1021,2 hPa 0,0 l/m 0 min 0 min 0 W/m 14,6 km/h (3 Bft)
04.03.2015 06:30 1,6 C 0,0 C 92 % 1021,2 hPa 0,0 l/m 0 min 0 min 0 W/m 16,7 km/h (3 Bft)
04.03.2015 06:32 1,6 C 0,0 C 92 % 1021,3 hPa 0,0 l/m 0 min 0 min 0 W/m 14,6 km/h (3 Bft)
04.03.2015 06:34 1,6 C 0,0 C 92 % 1021,3 hPa 0,0 l/m 0 min 0 min 0 W/m 20,9 km/h (4 Bft)
04.03.2015 06:36 1,6 C 0,0 C 92 % 1021,3 hPa 0,0 l/m 0 min 0 min 0 W/m 23,0 km/h (4 Bft)
04.03.2015 06:38 1,6 C 0,0 C 92 % 1021,3 hPa 0,0 l/m 0 min 0 min 0 W/m 16,7 km/h (3 Bft)
04.03.2015 06:40 1,6 C 0,0 C 92 % 1021,3 hPa 0,0 l/m 0 min 0 min 0 W/m 20,9 km/h (4 Bft)
04.03.2015 06:42 1,6 C 0,0 C 92 % 1021,3 hPa 0,0 l/m 0 min 0 min 0 W/m 18,8 km/h (3 Bft)
04.03.2015 06:44 1,6 C 0,0 C 92 % 1021,3 hPa 0,0 l/m 0 min 0 min 0 W/m 20,9 km/h (4 Bft)
04.03.2015 06:46 1,6 C 0,0 C 92 % 1021,3 hPa 0,0 l/m 0 min 0 min 0 W/m 18,8 km/h (3 Bft)
04.03.2015 06:48 1,6 C 0,0 C 92 % 1021,3 hPa 0,0 l/m 0 min 0 min 0 W/m 14,6 km/h (3 Bft)
04.03.2015 06:50 1,6 C 0,0 C 92 % 1021,3 hPa 0,0 l/m 0 min 0 min 0 W/m 16,7 km/h (3 Bft)
04.03.2015 06:52 1,6 C 0,0 C 92 % 1021,3 hPa 0,0 l/m 0 min 0 min 0 W/m 16,7 km/h (3 Bft)
04.03.2015 06:54 1,6 C 0,0 C 91 % 1021,3 hPa 0,0 l/m 0 min 0 min 0 W/m 18,8 km/h (3 Bft)
04.03.2015 06:56 1,5 C 0,0 C 91 % 1021,3 hPa 0,0 l/m 0 min 0 min 0 W/m 16,7 km/h (3 Bft)
04.03.2015 06:58 1,5 C 0,0 C 91 % 1021,4 hPa 0,0 l/m 0 min 0 min 0 W/m 16,7 km/h (3 Bft)
04.03.2015 07:00 1,5 C 0,0 C 91 % 1021,3 hPa 0,0 l/m 0 min 0 min 0 W/m 16,7 km/h (3 Bft)
04.03.2015 07:02 1,5 C 0,0 C 91 % 1021,4 hPa 0,0 l/m 0 min 0 min 0 W/m 16,7 km/h (3 Bft)
04.03.2015 07:04 1,5 C 0,0 C 91 % 1021,5 hPa 0,0 l/m 0 min 0 min 0 W/m 23,0 km/h (4 Bft)
04.03.2015 07:06 1,5 C 0,0 C 91 % 1021,6 hPa 0,0 l/m 0 min 0 min 1 W/m 16,7 km/h (3 Bft)
04.03.2015 07:08 1,5 C 0,0 C 91 % 1021,6 hPa 0,0 l/m 0 min 0 min 5 W/m 16,7 km/h (3 Bft)
04.03.2015 07:10 1,5 C 0,0 C 91 % 1021,6 hPa 0,0 l/m 0 min 0 min 5 W/m 16,7 km/h (3 Bft)
04.03.2015 07:12 1,5 C 0,0 C 91 % 1021,6 hPa 0,0 l/m 0 min 0 min 5 W/m 16,7 km/h (3 Bft)
04.03.2015 07:14 1,5 C 0,0 C 91 % 1021,5 hPa 0,0 l/m 0 min 0 min 7 W/m 12,6 km/h (3 Bft)
04.03.2015 07:16 1,4 C 0,0 C 91 % 1021,5 hPa 0,0 l/m 0 min 0 min 7 W/m 14,6 km/h (3 Bft)
04.03.2015 07:18 1,4 C 0,0 C 91 % 1021,5 hPa 0,0 l/m 0 min 0 min 7 W/m 14,6 km/h (3 Bft)
04.03.2015 07:20 1,4 C 0,0 C 91 % 1021,5 hPa 0,0 l/m 0 min 0 min 9 W/m 16,7 km/h (3 Bft)
04.03.2015 07:22 1,4 C 0,0 C 91 % 1021,6 hPa 0,0 l/m 0 min 0 min 9 W/m 12,6 km/h (3 Bft)
04.03.2015 07:24 1,4 C 0,0 C 91 % 1021,6 hPa 0,0 l/m 0 min 0 min 11 W/m 14,6 km/h (3 Bft)
04.03.2015 07:26 1,4 C 0,0 C 91 % 1021,6 hPa 0,0 l/m 2 min 0 min 11 W/m 14,6 km/h (3 Bft)
04.03.2015 07:28 1,4 C 0,6 C 91 % 1021,6 hPa 0,0 l/m 0 min 0 min 11 W/m 12,6 km/h (3 Bft)
04.03.2015 07:30 1,4 C 0,6 C 91 % 1021,6 hPa 0,0 l/m 0 min 0 min 12 W/m 16,7 km/h (3 Bft)
04.03.2015 07:32 1,5 C 0,6 C 91 % 1021,6 hPa 0,0 l/m 0 min 0 min 12 W/m 16,7 km/h (3 Bft)
04.03.2015 07:34 1,4 C 0,6 C 91 % 1021,6 hPa 0,0 l/m 0 min 0 min 13 W/m 16,7 km/h (3 Bft)
04.03.2015 07:36 1,5 C 0,6 C 91 % 1021,6 hPa 0,0 l/m 0 min 0 min 16 W/m 14,6 km/h (3 Bft)
04.03.2015 07:38 1,5 C 0,6 C 91 % 1021,6 hPa 0,0 l/m 0 min 0 min 16 W/m 16,7 km/h (3 Bft)
04.03.2015 07:40 1,6 C 0,6 C 91 % 1021,7 hPa 0,0 l/m 0 min 0 min 17 W/m 16,7 km/h (3 Bft)
04.03.2015 07:42 1,6 C 0,6 C 91 % 1021,6 hPa 0,0 l/m 0 min 0 min 18 W/m 12,6 km/h (3 Bft)
04.03.2015 07:44 1,6 C 0,6 C 91 % 1021,7 hPa 0,0 l/m 0 min 0 min 19 W/m 16,7 km/h (3 Bft)
04.03.2015 07:46 1,6 C 0,6 C 91 % 1021,7 hPa 0,0 l/m 0 min 0 min 21 W/m 14,6 km/h (3 Bft)
04.03.2015 07:48 1,6 C 0,6 C 91 % 1021,7 hPa 0,0 l/m 0 min 0 min 23 W/m 12,6 km/h (3 Bft)
04.03.2015 07:50 1,6 C 0,6 C 91 % 1021,8 hPa 0,0 l/m 0 min 0 min 26 W/m 12,6 km/h (3 Bft)
04.03.2015 07:52 1,6 C 0,6 C 91 % 1021,8 hPa 0,0 l/m 0 min 0 min 31 W/m 8,4 km/h (2 Bft)
04.03.2015 07:54 1,6 C 0,6 C 91 % 1021,8 hPa 0,0 l/m 2 min 0 min 50 W/m 16,7 km/h (3 Bft)
04.03.2015 07:56 1,6 C 0,6 C 91 % 1021,9 hPa 0,0 l/m 2 min 0 min 57 W/m 8,4 km/h (2 Bft)
04.03.2015 07:58 1,6 C 0,6 C 91 % 1021,9 hPa 0,0 l/m 2 min 0 min 63 W/m 14,6 km/h (3 Bft)
04.03.2015 08:00 1,6 C 0,6 C 91 % 1021,9 hPa 0,0 l/m 2 min 0 min 68 W/m 14,6 km/h (3 Bft)
04.03.2015 08:02 1,6 C 0,6 C 91 % 1021,9 hPa 0,0 l/m 2 min 0 min 72 W/m 25,1 km/h (4 Bft)
04.03.2015 08:04 1,6 C 0,6 C 91 % 1022,0 hPa 0,0 l/m 2 min 0 min 77 W/m 14,6 km/h (3 Bft)
04.03.2015 08:06 1,7 C 0,6 C 91 % 1022,0 hPa 0,0 l/m 2 min 0 min 80 W/m 16,7 km/h (3 Bft)
04.03.2015 08:08 1,7 C 0,6 C 91 % 1022,0 hPa 0,0 l/m 2 min 0 min 83 W/m 18,8 km/h (3 Bft)
04.03.2015 08:10 1,7 C 0,6 C 91 % 1022,0 hPa 0,0 l/m 2 min 0 min 87 W/m 18,8 km/h (3 Bft)
04.03.2015 08:12 1,7 C 0,6 C 91 % 1022,1 hPa 0,0 l/m 2 min 0 min 94 W/m 18,8 km/h (3 Bft)
04.03.2015 08:14 1,7 C 0,6 C 91 % 1022,1 hPa 0,0 l/m 2 min 0 min 99 W/m 16,7 km/h (3 Bft)
04.03.2015 08:16 1,7 C 0,6 C 91 % 1022,1 hPa 0,0 l/m 2 min 0 min 102 W/m 18,8 km/h (3 Bft)
04.03.2015 08:18 1,8 C 1,1 C 91 % 1022,2 hPa 0,0 l/m 2 min 0 min 107 W/m 18,8 km/h (3 Bft)
04.03.2015 08:20 1,8 C 1,1 C 91 % 1022,3 hPa 0,0 l/m 2 min 0 min 115 W/m 14,6 km/h (3 Bft)
04.03.2015 08:22 1,8 C 1,1 C 91 % 1022,2 hPa 0,0 l/m 2 min 0 min 118 W/m 20,9 km/h (4 Bft)
04.03.2015 08:24 1,8 C 1,1 C 91 % 1022,2 hPa 0,0 l/m 2 min 0 min 120 W/m 20,9 km/h (4 Bft)
04.03.2015 08:26 1,9 C 1,1 C 91 % 1022,3 hPa 0,0 l/m 2 min 0 min 122 W/m 23,0 km/h (4 Bft)
04.03.2015 08:28 1,9 C 1,1 C 91 % 1022,3 hPa 0,0 l/m 2 min 0 min 129 W/m 25,1 km/h (4 Bft)
04.03.2015 08:30 1,9 C 1,1 C 91 % 1022,3 hPa 0,0 l/m 2 min 0 min 133 W/m 18,8 km/h (3 Bft)
04.03.2015 08:32 2,0 C 1,1 C 91 % 1022,4 hPa 0,0 l/m 2 min 0 min 138 W/m 18,8 km/h (3 Bft)
04.03.2015 08:34 2,0 C 1,1 C 91 % 1022,4 hPa 0,0 l/m 2 min 0 min 142 W/m 25,1 km/h (4 Bft)
04.03.2015 08:36 2,1 C 1,1 C 91 % 1022,4 hPa 0,0 l/m 2 min 0 min 149 W/m 29,3 km/h (5 Bft)
04.03.2015 08:38 2,1 C 1,1 C 91 % 1022,5 hPa 0,0 l/m 2 min 0 min 154 W/m 23,0 km/h (4 Bft)
04.03.2015 08:40 2,2 C 1,1 C 91 % 1022,5 hPa 0,0 l/m 2 min 0 min 160 W/m 23,0 km/h (4 Bft)
04.03.2015 08:42 2,2 C 1,1 C 91 % 1022,5 hPa 0,0 l/m 2 min 0 min 164 W/m 20,9 km/h (4 Bft)
04.03.2015 08:44 2,2 C 1,1 C 91 % 1022,6 hPa 0,0 l/m 2 min 0 min 169 W/m 20,9 km/h (4 Bft)
04.03.2015 08:46 2,3 C 1,7 C 91 % 1022,6 hPa 0,0 l/m 2 min 0 min 173 W/m 18,8 km/h (3 Bft)
04.03.2015 08:48 2,3 C 1,7 C 91 % 1022,6 hPa 0,0 l/m 2 min 0 min 178 W/m 23,0 km/h (4 Bft)
04.03.2015 08:50 2,3 C 1,7 C 91 % 1022,6 hPa 0,0 l/m 2 min 0 min 183 W/m 18,8 km/h (3 Bft)
04.03.2015 08:52 2,4 C 1,7 C 91 % 1022,6 hPa 0,0 l/m 2 min 0 min 191 W/m 20,9 km/h (4 Bft)
04.03.2015 08:54 2,4 C 1,7 C 91 % 1022,7 hPa 0,0 l/m 2 min 0 min 194 W/m 20,9 km/h (4 Bft)
04.03.2015 08:56 2,4 C 1,7 C 91 % 1022,7 hPa 0,0 l/m 2 min 0 min 200 W/m 27,2 km/h (4 Bft)
04.03.2015 08:58 2,5 C 1,7 C 91 % 1022,7 hPa 0,0 l/m 2 min 0 min 205 W/m 27,2 km/h (4 Bft)
04.03.2015 09:00 2,6 C 1,7 C 91 % 1022,6 hPa 0,0 l/m 2 min 0 min 209 W/m 16,7 km/h (3 Bft)
04.03.2015 09:02 2,6 C 1,7 C 90 % 1022,7 hPa 0,0 l/m 2 min 0 min 218 W/m 25,1 km/h (4 Bft)
04.03.2015 09:04 2,7 C 1,7 C 90 % 1022,7 hPa 0,0 l/m 2 min 0 min 228 W/m 29,3 km/h (5 Bft)
04.03.2015 09:06 2,7 C 1,7 C 90 % 1022,8 hPa 0,0 l/m 2 min 0 min 230 W/m 20,9 km/h (4 Bft)
04.03.2015 09:08 2,7 C 1,7 C 90 % 1022,7 hPa 0,0 l/m 2 min 0 min 230 W/m 29,3 km/h (5 Bft)
04.03.2015 09:10 2,8 C 1,7 C 90 % 1022,8 hPa 0,0 l/m 2 min 0 min 237 W/m 29,3 km/h (5 Bft)
04.03.2015 09:12 2,9 C 1,7 C 90 % 1022,8 hPa 0,0 l/m 2 min 0 min 245 W/m 16,7 km/h (3 Bft)
04.03.2015 09:14 2,9 C 2,2 C 90 % 1022,8 hPa 0,0 l/m 2 min 0 min 253 W/m 25,1 km/h (4 Bft)
04.03.2015 09:16 3,0 C 2,2 C 90 % 1022,8 hPa 0,0 l/m 2 min 0 min 256 W/m 18,8 km/h (3 Bft)
04.03.2015 09:18 3,1 C 2,2 C 90 % 1022,8 hPa 0,0 l/m 2 min 0 min 258 W/m 29,3 km/h (5 Bft)
04.03.2015 09:20 3,1 C 2,2 C 90 % 1022,8 hPa 0,0 l/m 2 min 0 min 267 W/m 31,4 km/h (5 Bft)
04.03.2015 09:22 3,2 C 2,2 C 90 % 1022,8 hPa 0,0 l/m 2 min 0 min 269 W/m 27,2 km/h (4 Bft)
04.03.2015 09:24 3,3 C 2,2 C 90 % 1022,8 hPa 0,0 l/m 2 min 0 min 279 W/m 16,7 km/h (3 Bft)
04.03.2015 09:26 3,3 C 2,2 C 90 % 1022,9 hPa 0,0 l/m 2 min 0 min 283 W/m 27,2 km/h (4 Bft)
04.03.2015 09:28 3,4 C 2,2 C 90 % 1022,8 hPa 0,0 l/m 2 min 0 min 287 W/m 25,1 km/h (4 Bft)
04.03.2015 09:30 3,5 C 2,2 C 90 % 1022,9 hPa 0,0 l/m 2 min 0 min 296 W/m 33,5 km/h (5 Bft)
04.03.2015 09:32 3,6 C 2,2 C 89 % 1022,8 hPa 0,0 l/m 2 min 0 min 297 W/m 18,8 km/h (3 Bft)
04.03.2015 09:34 3,7 C 2,2 C 89 % 1022,9 hPa 0,0 l/m 2 min 0 min 304 W/m 27,2 km/h (4 Bft)
04.03.2015 09:36 3,7 C 2,2 C 89 % 1022,9 hPa 0,0 l/m 2 min 0 min 311 W/m 18,8 km/h (3 Bft)
04.03.2015 09:38 3,8 C 2,8 C 89 % 1022,9 hPa 0,0 l/m 2 min 0 min 313 W/m 23,0 km/h (4 Bft)
04.03.2015 09:40 3,8 C 2,8 C 89 % 1022,9 hPa 0,0 l/m 2 min 0 min 317 W/m 25,1 km/h (4 Bft)
04.03.2015 09:42 3,9 C 2,8 C 89 % 1022,9 hPa 0,0 l/m 2 min 0 min 323 W/m 29,3 km/h (5 Bft)
04.03.2015 09:44 4,0 C 2,8 C 89 % 1022,9 hPa 0,0 l/m 2 min 0 min 327 W/m 25,1 km/h (4 Bft)
04.03.2015 09:46 4,1 C 2,8 C 88 % 1023,0 hPa 0,0 l/m 2 min 0 min 334 W/m 25,1 km/h (4 Bft)
04.03.2015 09:48 4,1 C 2,8 C 88 % 1023,0 hPa 0,2 l/m 2 min 0 min 345 W/m 25,1 km/h (4 Bft)
04.03.2015 09:50 4,2 C 2,8 C 88 % 1023,0 hPa 0,0 l/m 2 min 0 min 339 W/m 25,1 km/h (4 Bft)
04.03.2015 09:52 4,2 C 2,8 C 88 % 1023,0 hPa 0,0 l/m 2 min 0 min 227 W/m 27,2 km/h (4 Bft)
04.03.2015 09:54 4,3 C 2,8 C 88 % 1023,1 hPa 0,0 l/m 2 min 0 min 238 W/m 37,7 km/h (5 Bft)
04.03.2015 09:56 4,3 C 3,3 C 88 % 1023,0 hPa 0,0 l/m 2 min 0 min 384 W/m 27,2 km/h (4 Bft)
04.03.2015 09:58 4,4 C 3,3 C 87 % 1023,1 hPa 0,0 l/m 2 min 0 min 377 W/m 23,0 km/h (4 Bft)
04.03.2015 10:00 4,4 C 3,3 C 87 % 1023,1 hPa 0,0 l/m 2 min 0 min 324 W/m 20,9 km/h (4 Bft)
04.03.2015 10:02 4,5 C 3,3 C 87 % 1023,1 hPa 0,0 l/m 2 min 0 min 260 W/m 23,0 km/h (4 Bft)
04.03.2015 10:04 4,6 C 3,3 C 87 % 1023,0 hPa 0,0 l/m 2 min 0 min 311 W/m 18,8 km/h (3 Bft)
04.03.2015 10:06 4,6 C 3,3 C 87 % 1023,1 hPa 0,0 l/m 2 min 0 min 366 W/m 27,2 km/h (4 Bft)
04.03.2015 10:08 4,7 C 3,3 C 87 % 1023,0 hPa 0,0 l/m 2 min 0 min 392 W/m 29,3 km/h (5 Bft)
04.03.2015 10:10 4,8 C 3,9 C 87 % 1023,0 hPa 0,0 l/m 2 min 0 min 423 W/m 25,1 km/h (4 Bft)
04.03.2015 10:12 4,8 C 3,9 C 87 % 1023,1 hPa 0,0 l/m 2 min 0 min 449 W/m 29,3 km/h (5 Bft)
04.03.2015 10:14 4,9 C 3,9 C 86 % 1023,1 hPa 0,0 l/m 2 min 0 min 443 W/m 20,9 km/h (4 Bft)
04.03.2015 10:16 4,9 C 3,9 C 86 % 1023,1 hPa 0,0 l/m 2 min 0 min 412 W/m 23,0 km/h (4 Bft)
04.03.2015 10:18 5,0 C 3,9 C 86 % 1023,1 hPa 0,0 l/m 2 min 0 min 417 W/m 27,2 km/h (4 Bft)
04.03.2015 10:20 5,1 C 3,9 C 86 % 1023,1 hPa 0,0 l/m 2 min 0 min 429 W/m 23,0 km/h (4 Bft)
04.03.2015 10:22 5,2 C 3,9 C 86 % 1023,1 hPa 0,0 l/m 2 min 0 min 423 W/m 27,2 km/h (4 Bft)
04.03.2015 10:24 5,2 C 4,4 C 86 % 1023,1 hPa 0,0 l/m 2 min 0 min 466 W/m 31,4 km/h (5 Bft)
04.03.2015 10:26 5,3 C 4,4 C 86 % 1023,1 hPa 0,0 l/m 2 min 0 min 392 W/m 25,1 km/h (4 Bft)
04.03.2015 10:28 5,4 C 4,4 C 85 % 1023,1 hPa 0,0 l/m 2 min 0 min 383 W/m 29,3 km/h (5 Bft)
04.03.2015 10:30 5,4 C 4,4 C 85 % 1023,1 hPa 0,0 l/m 2 min 0 min 474 W/m 31,4 km/h (5 Bft)
04.03.2015 10:32 5,5 C 4,4 C 85 % 1023,1 hPa 0,0 l/m 2 min 0 min 479 W/m 35,6 km/h (5 Bft)
04.03.2015 10:34 5,6 C 4,4 C 84 % 1023,1 hPa 0,0 l/m 2 min 0 min 475 W/m 31,4 km/h (5 Bft)
04.03.2015 10:36 5,6 C 4,4 C 84 % 1023,1 hPa 0,0 l/m 2 min 0 min 488 W/m 25,1 km/h (4 Bft)
04.03.2015 10:38 5,7 C 4,4 C 84 % 1023,2 hPa 0,0 l/m 2 min 0 min 515 W/m 39,7 km/h (6 Bft)
04.03.2015 10:40 5,7 C 4,4 C 84 % 1023,2 hPa 0,0 l/m 2 min 0 min 512 W/m 31,4 km/h (5 Bft)
04.03.2015 10:42 5,7 C 4,4 C 83 % 1023,2 hPa 0,0 l/m 2 min 0 min 294 W/m 29,3 km/h (5 Bft)
04.03.2015 10:44 5,7 C 3,9 C 83 % 1023,2 hPa 0,0 l/m 0 min 0 min 121 W/m 35,6 km/h (5 Bft)
04.03.2015 10:46 5,7 C 4,4 C 82 % 1023,3 hPa 0,0 l/m 0 min 0 min 145 W/m 20,9 km/h (4 Bft)
04.03.2015 10:48 5,7 C 4,4 C 83 % 1023,3 hPa 0,0 l/m 2 min 0 min 560 W/m 31,4 km/h (5 Bft)
04.03.2015 10:50 5,7 C 4,4 C 83 % 1023,3 hPa 0,0 l/m 2 min 0 min 232 W/m 29,3 km/h (5 Bft)
04.03.2015 10:52 5,7 C 4,4 C 83 % 1023,3 hPa 0,0 l/m 2 min 0 min 394 W/m 25,1 km/h (4 Bft)
04.03.2015 10:54 5,7 C 5,0 C 83 % 1023,4 hPa 0,0 l/m 2 min 0 min 434 W/m 31,4 km/h (5 Bft)
04.03.2015 10:56 5,7 C 5,0 C 83 % 1023,6 hPa 0,0 l/m 2 min 0 min 257 W/m 29,3 km/h (5 Bft)
04.03.2015 10:58 5,7 C 5,0 C 83 % 1023,6 hPa 0,0 l/m 0 min 0 min 188 W/m 23,0 km/h (4 Bft)
04.03.2015 11:00 5,7 C 5,0 C 83 % 1023,6 hPa 0,0 l/m 2 min 0 min 430 W/m 27,2 km/h (4 Bft)
04.03.2015 11:02 5,7 C 5,0 C 83 % 1023,6 hPa 0,0 l/m 0 min 0 min 216 W/m 27,2 km/h (4 Bft)
04.03.2015 11:04 5,8 C 5,0 C 83 % 1023,7 hPa 0,0 l/m 2 min 0 min 239 W/m 25,1 km/h (4 Bft)
04.03.2015 11:06 5,8 C 5,6 C 83 % 1023,6 hPa 0,0 l/m 2 min 0 min 239 W/m 31,4 km/h (5 Bft)
04.03.2015 11:08 5,9 C 5,6 C 83 % 1023,7 hPa 0,0 l/m 0 min 0 min 232 W/m 20,9 km/h (4 Bft)
04.03.2015 11:10 5,9 C 6,1 C 83 % 1023,7 hPa 0,0 l/m 0 min 0 min 222 W/m 23,0 km/h (4 Bft)
04.03.2015 11:12 6,0 C 5,6 C 83 % 1023,7 hPa 0,0 l/m 0 min 0 min 215 W/m 33,5 km/h (5 Bft)
04.03.2015 11:14 6,0 C 5,6 C 83 % 1023,7 hPa 0,0 l/m 0 min 0 min 178 W/m 35,6 km/h (5 Bft)
04.03.2015 11:16 6,0 C 5,0 C 82 % 1023,7 hPa 0,0 l/m 0 min 0 min 193 W/m 31,4 km/h (5 Bft)
04.03.2015 11:18 5,9 C 5,0 C 82 % 1023,8 hPa 0,0 l/m 0 min 0 min 231 W/m 23,0 km/h (4 Bft)
04.03.2015 11:20 6,0 C 5,6 C 82 % 1023,8 hPa 0,0 l/m 0 min 0 min 219 W/m 33,5 km/h (5 Bft)
04.03.2015 11:22 6,0 C 5,6 C 82 % 1023,8 hPa 0,0 l/m 0 min 0 min 187 W/m 20,9 km/h (4 Bft)
04.03.2015 11:24 6,0 C 5,6 C 83 % 1023,8 hPa 0,0 l/m 0 min 0 min 212 W/m 20,9 km/h (4 Bft)
04.03.2015 11:26 6,0 C 5,6 C 83 % 1023,8 hPa 0,0 l/m 0 min 0 min 202 W/m 14,6 km/h (3 Bft)
04.03.2015 11:28 6,0 C 5,6 C 83 % 1023,7 hPa 0,0 l/m 0 min 0 min 220 W/m 20,9 km/h (4 Bft)
04.03.2015 11:30 6,1 C 5,6 C 83 % 1023,7 hPa 0,0 l/m 0 min 0 min 209 W/m 23,0 km/h (4 Bft)
04.03.2015 11:32 6,1 C 5,6 C 82 % 1023,7 hPa 0,0 l/m 0 min 0 min 205 W/m 12,6 km/h (3 Bft)
04.03.2015 11:34 6,1 C 5,6 C 82 % 1023,7 hPa 0,0 l/m 2 min 0 min 257 W/m 29,3 km/h (5 Bft)
04.03.2015 11:36 6,1 C 5,6 C 83 % 1023,8 hPa 0,0 l/m 2 min 0 min 253 W/m 33,5 km/h (5 Bft)
04.03.2015 11:38 6,1 C 5,6 C 82 % 1023,8 hPa 0,0 l/m 2 min 0 min 278 W/m 25,1 km/h (4 Bft)
04.03.2015 11:40 6,1 C 5,6 C 82 % 1023,7 hPa 0,0 l/m 0 min 0 min 215 W/m 33,5 km/h (5 Bft)
04.03.2015 11:42 6,1 C 5,6 C 82 % 1023,7 hPa 0,0 l/m 0 min 0 min 209 W/m 29,3 km/h (5 Bft)
04.03.2015 11:44 6,2 C 6,1 C 82 % 1023,8 hPa 0,0 l/m 2 min 0 min 268 W/m 25,1 km/h (4 Bft)
04.03.2015 11:46 6,2 C 6,1 C 82 % 1023,8 hPa 0,0 l/m 2 min 0 min 282 W/m 20,9 km/h (4 Bft)
04.03.2015 11:48 6,3 C 6,1 C 82 % 1023,8 hPa 0,0 l/m 0 min 0 min 233 W/m 31,4 km/h (5 Bft)
04.03.2015 11:50 6,3 C 5,6 C 82 % 1023,8 hPa 0,0 l/m 0 min 0 min 218 W/m 25,1 km/h (4 Bft)
04.03.2015 11:52 6,3 C 5,6 C 82 % 1023,8 hPa 0,0 l/m 0 min 0 min 181 W/m 29,3 km/h (5 Bft)
04.03.2015 11:54 6,3 C 5,6 C 82 % 1023,9 hPa 0,0 l/m 0 min 0 min 152 W/m 20,9 km/h (4 Bft)
04.03.2015 11:56 6,3 C 5,6 C 81 % 1023,9 hPa 0,0 l/m 0 min 0 min 195 W/m 27,2 km/h (4 Bft)
04.03.2015 11:58 6,3 C 5,6 C 81 % 1023,9 hPa 0,0 l/m 0 min 0 min 231 W/m 31,4 km/h (5 Bft)
04.03.2015 12:00 6,3 C 5,6 C 81 % 1023,9 hPa 0,0 l/m 0 min 0 min 227 W/m 25,1 km/h (4 Bft)
04.03.2015 12:02 6,3 C 5,6 C 81 % 1023,9 hPa 0,0 l/m 0 min 0 min 183 W/m 27,2 km/h (4 Bft)
04.03.2015 12:06 6,4 C 6,1 C 81 % 1024,0 hPa 0,0 l/m 0 min 0 min 202 W/m 33,5 km/h (5 Bft)
04.03.2015 12:08 6,4 C 6,7 C 82 % 1024,1 hPa 0,0 l/m 0 min 0 min 253 W/m 23,0 km/h (4 Bft)
04.03.2015 12:10 6,4 C 6,7 C 82 % 1024,0 hPa 0,0 l/m 2 min 0 min 262 W/m 16,7 km/h (3 Bft)
04.03.2015 12:12 6,5 C 6,7 C 82 % 1024,1 hPa 0,0 l/m 0 min 0 min 254 W/m 23,0 km/h (4 Bft)
04.03.2015 12:14 6,6 C 6,7 C 82 % 1024,0 hPa 0,0 l/m 0 min 0 min 243 W/m 20,9 km/h (4 Bft)
04.03.2015 12:16 6,7 C 6,7 C 81 % 1024,0 hPa 0,0 l/m 0 min 0 min 257 W/m 27,2 km/h (4 Bft)
04.03.2015 12:18 6,7 C 6,7 C 81 % 1024,0 hPa 0,0 l/m 0 min 0 min 228 W/m 33,5 km/h (5 Bft)
04.03.2015 12:20 6,7 C 6,1 C 80 % 1024,1 hPa 0,0 l/m 0 min 0 min 165 W/m 31,4 km/h (5 Bft)
04.03.2015 12:22 6,7 C 6,1 C 80 % 1024,1 hPa 0,0 l/m 0 min 0 min 168 W/m 16,7 km/h (3 Bft)
04.03.2015 12:24 6,7 C 5,6 C 80 % 1024,1 hPa 0,0 l/m 0 min 0 min 135 W/m 25,1 km/h (4 Bft)
04.03.2015 12:26 6,7 C 5,6 C 79 % 1024,3 hPa 0,0 l/m 0 min 0 min 115 W/m 27,2 km/h (4 Bft)
04.03.2015 12:28 6,6 C 5,6 C 79 % 1024,2 hPa 0,0 l/m 0 min 0 min 111 W/m 29,3 km/h (5 Bft)
04.03.2015 12:30 6,6 C 5,6 C 79 % 1024,3 hPa 0,0 l/m 0 min 0 min 117 W/m 23,0 km/h (4 Bft)
04.03.2015 12:32 6,6 C 5,6 C 79 % 1024,3 hPa 0,0 l/m 0 min 0 min 102 W/m 31,4 km/h (5 Bft)
04.03.2015 12:34 6,5 C 5,6 C 79 % 1024,3 hPa 0,0 l/m 0 min 0 min 131 W/m 25,1 km/h (4 Bft)
04.03.2015 12:36 6,5 C 5,6 C 79 % 1024,4 hPa 0,0 l/m 0 min 0 min 222 W/m 33,5 km/h (5 Bft)
04.03.2015 12:38 6,5 C 6,1 C 79 % 1024,4 hPa 0,0 l/m 0 min 0 min 244 W/m 27,2 km/h (4 Bft)
04.03.2015 12:40 6,5 C 6,1 C 79 % 1024,4 hPa 0,0 l/m 0 min 0 min 245 W/m 29,3 km/h (5 Bft)
04.03.2015 12:42 6,5 C 6,1 C 78 % 1024,5 hPa 0,0 l/m 0 min 0 min 218 W/m 23,0 km/h (4 Bft)
04.03.2015 12:44 6,6 C 6,7 C 78 % 1024,5 hPa 0,0 l/m 0 min 0 min 253 W/m 33,5 km/h (5 Bft)
04.03.2015 12:46 6,6 C 6,7 C 78 % 1024,4 hPa 0,0 l/m 2 min 0 min 266 W/m 27,2 km/h (4 Bft)
04.03.2015 12:48 6,6 C 6,7 C 78 % 1024,4 hPa 0,0 l/m 0 min 0 min 210 W/m 35,6 km/h (5 Bft)
04.03.2015 12:50 6,7 C 6,7 C 78 % 1024,5 hPa 0,0 l/m 0 min 0 min 205 W/m 27,2 km/h (4 Bft)
04.03.2015 12:52 6,7 C 6,7 C 78 % 1024,4 hPa 0,0 l/m 0 min 0 min 215 W/m 27,2 km/h (4 Bft)
04.03.2015 12:54 6,7 C 6,7 C 77 % 1024,4 hPa 0,0 l/m 0 min 0 min 209 W/m 27,2 km/h (4 Bft)
04.03.2015 12:56 6,7 C 6,1 C 77 % 1024,4 hPa 0,0 l/m 0 min 0 min 190 W/m 27,2 km/h (4 Bft)
04.03.2015 12:58 6,7 C 6,1 C 76 % 1024,3 hPa 0,0 l/m 0 min 0 min 175 W/m 23,0 km/h (4 Bft)
04.03.2015 13:00 6,7 C 6,7 C 76 % 1024,4 hPa 0,0 l/m 2 min 0 min 617 W/m 23,0 km/h (4 Bft)
04.03.2015 13:02 6,8 C 6,7 C 76 % 1024,3 hPa 0,0 l/m 2 min 0 min 673 W/m 25,1 km/h (4 Bft)
04.03.2015 13:04 6,8 C 6,7 C 77 % 1024,3 hPa 0,0 l/m 2 min 0 min 292 W/m 29,3 km/h (5 Bft)
04.03.2015 13:06 6,9 C 6,7 C 77 % 1024,4 hPa 0,0 l/m 2 min 0 min 313 W/m 39,7 km/h (6 Bft)
04.03.2015 13:08 6,9 C 6,7 C 76 % 1024,4 hPa 0,0 l/m 2 min 0 min 268 W/m 29,3 km/h (5 Bft)
04.03.2015 13:10 6,9 C 6,1 C 76 % 1024,3 hPa 0,0 l/m 0 min 0 min 165 W/m 27,2 km/h (4 Bft)
04.03.2015 13:12 7,0 C 6,1 C 75 % 1024,3 hPa 0,0 l/m 0 min 0 min 194 W/m 31,4 km/h (5 Bft)
04.03.2015 13:14 7,0 C 6,1 C 75 % 1024,3 hPa 0,0 l/m 0 min 0 min 199 W/m 31,4 km/h (5 Bft)
04.03.2015 13:16 7,0 C 6,1 C 75 % 1024,3 hPa 0,0 l/m 0 min 0 min 164 W/m 31,4 km/h (5 Bft)
04.03.2015 13:18 7,0 C 6,1 C 75 % 1024,3 hPa 0,0 l/m 0 min 0 min 177 W/m 33,5 km/h (5 Bft)
04.03.2015 13:20 7,0 C 6,1 C 75 % 1024,3 hPa 0,0 l/m 0 min 0 min 186 W/m 33,5 km/h (5 Bft)
04.03.2015 13:22 7,0 C 6,1 C 76 % 1024,3 hPa 0,0 l/m 0 min 0 min 131 W/m 27,2 km/h (4 Bft)
04.03.2015 13:24 6,9 C 6,1 C 76 % 1024,3 hPa 0,0 l/m 0 min 2 min 124 W/m 31,4 km/h (5 Bft)
04.03.2015 13:26 6,9 C 5,6 C 76 % 1024,3 hPa 0,0 l/m 0 min 0 min 125 W/m 33,5 km/h (5 Bft)
04.03.2015 13:28 6,9 C 6,1 C 76 % 1024,3 hPa 0,0 l/m 0 min 2 min 170 W/m 25,1 km/h (4 Bft)
04.03.2015 13:30 6,9 C 6,1 C 76 % 1024,3 hPa 0,0 l/m 0 min 0 min 256 W/m 23,0 km/h (4 Bft)
04.03.2015 13:32 6,9 C 6,7 C 76 % 1024,3 hPa 0,0 l/m 2 min 0 min 276 W/m 23,0 km/h (4 Bft)
04.03.2015 13:34 6,9 C 6,7 C 77 % 1024,4 hPa 0,0 l/m 0 min 0 min 236 W/m 18,8 km/h (3 Bft)
04.03.2015 13:36 7,0 C 6,7 C 77 % 1024,3 hPa 0,0 l/m 0 min 0 min 227 W/m 23,0 km/h (4 Bft)
04.03.2015 13:38 7,1 C 6,7 C 77 % 1024,4 hPa 0,0 l/m 0 min 0 min 210 W/m 35,6 km/h (5 Bft)
04.03.2015 13:40 7,1 C 6,7 C 76 % 1024,4 hPa 0,0 l/m 0 min 0 min 190 W/m 27,2 km/h (4 Bft)
04.03.2015 13:42 7,1 C 6,7 C 76 % 1024,4 hPa 0,0 l/m 0 min 0 min 160 W/m 20,9 km/h (4 Bft)
04.03.2015 13:44 7,1 C 6,1 C 76 % 1024,3 hPa 0,0 l/m 0 min 0 min 103 W/m 16,7 km/h (3 Bft)
04.03.2015 13:46 7,1 C 6,1 C 76 % 1024,3 hPa 0,0 l/m 0 min 0 min 88 W/m 29,3 km/h (5 Bft)
04.03.2015 13:48 7,0 C 5,6 C 76 % 1024,3 hPa 0,0 l/m 0 min 0 min 86 W/m 23,0 km/h (4 Bft)
04.03.2015 13:50 7,0 C 5,6 C 76 % 1024,3 hPa 0,0 l/m 0 min 0 min 93 W/m 25,1 km/h (4 Bft)
04.03.2015 13:52 6,9 C 5,6 C 77 % 1024,4 hPa 0,0 l/m 0 min 0 min 125 W/m 14,6 km/h (3 Bft)
04.03.2015 13:54 6,9 C 6,1 C 77 % 1024,2 hPa 0,0 l/m 0 min 0 min 140 W/m 18,8 km/h (3 Bft)
04.03.2015 13:56 6,9 C 6,1 C 77 % 1024,2 hPa 0,0 l/m 0 min 0 min 144 W/m 10,5 km/h (2 Bft)
04.03.2015 13:58 7,0 C 6,1 C 77 % 1024,2 hPa 0,0 l/m 0 min 0 min 157 W/m 14,6 km/h (3 Bft)
04.03.2015 14:00 7,0 C 6,1 C 77 % 1024,2 hPa 0,0 l/m 0 min 0 min 168 W/m 16,7 km/h (3 Bft)
04.03.2015 14:02 7,1 C 6,1 C 77 % 1024,3 hPa 0,0 l/m 0 min 2 min 91 W/m 18,8 km/h (3 Bft)
04.03.2015 14:04 7,0 C 6,1 C 77 % 1024,3 hPa 0,0 l/m 0 min 0 min 63 W/m 14,6 km/h (3 Bft)
04.03.2015 14:06 7,0 C 5,6 C 77 % 1024,3 hPa 0,0 l/m 0 min 0 min 61 W/m 29,3 km/h (5 Bft)
04.03.2015 14:08 7,0 C 5,0 C 76 % 1024,3 hPa 0,0 l/m 0 min 2 min 60 W/m 23,0 km/h (4 Bft)
04.03.2015 14:10 6,9 C 5,0 C 76 % 1024,4 hPa 0,0 l/m 0 min 2 min 66 W/m 16,7 km/h (3 Bft)
04.03.2015 14:12 6,9 C 5,0 C 77 % 1024,3 hPa 0,0 l/m 0 min 0 min 91 W/m 16,7 km/h (3 Bft)
04.03.2015 14:14 6,9 C 5,0 C 77 % 1024,3 hPa 0,0 l/m 0 min 0 min 105 W/m 12,6 km/h (3 Bft)
04.03.2015 14:16 6,9 C 5,0 C 77 % 1024,4 hPa 0,0 l/m 0 min 0 min 134 W/m 23,0 km/h (4 Bft)
04.03.2015 14:18 6,8 C 5,0 C 77 % 1024,4 hPa 0,0 l/m 0 min 0 min 118 W/m 25,1 km/h (4 Bft)
04.03.2015 14:20 6,8 C 5,6 C 77 % 1024,4 hPa 0,0 l/m 0 min 0 min 142 W/m 18,8 km/h (3 Bft)
04.03.2015 14:22 6,8 C 5,6 C 77 % 1024,4 hPa 0,0 l/m 0 min 0 min 154 W/m 16,7 km/h (3 Bft)
04.03.2015 14:24 6,8 C 5,6 C 78 % 1024,4 hPa 0,0 l/m 0 min 2 min 124 W/m 18,8 km/h (3 Bft)
04.03.2015 14:26 6,8 C 5,6 C 78 % 1024,4 hPa 0,0 l/m 0 min 2 min 128 W/m 31,4 km/h (5 Bft)
04.03.2015 14:28 6,8 C 5,6 C 78 % 1024,4 hPa 0,0 l/m 0 min 0 min 137 W/m 29,3 km/h (5 Bft)
04.03.2015 14:30 6,8 C 5,6 C 77 % 1024,4 hPa 0,0 l/m 0 min 0 min 165 W/m 27,2 km/h (4 Bft)
04.03.2015 14:32 6,8 C 6,1 C 77 % 1024,6 hPa 0,0 l/m 0 min 0 min 206 W/m 20,9 km/h (4 Bft)
04.03.2015 14:34 6,9 C 7,2 C 77 % 1024,5 hPa 0,0 l/m 2 min 0 min 356 W/m 18,8 km/h (3 Bft)
04.03.2015 14:36 7,1 C 8,3 C 78 % 1024,4 hPa 0,0 l/m 2 min 0 min 577 W/m 20,9 km/h (4 Bft)
04.03.2015 14:38 7,2 C 8,9 C 78 % 1024,5 hPa 0,0 l/m 2 min 0 min 529 W/m 25,1 km/h (4 Bft)
04.03.2015 14:40 7,4 C 8,3 C 78 % 1024,4 hPa 0,0 l/m 2 min 0 min 373 W/m 23,0 km/h (4 Bft)
04.03.2015 14:42 7,6 C 7,8 C 77 % 1024,5 hPa 0,0 l/m 2 min 0 min 279 W/m 14,6 km/h (3 Bft)
04.03.2015 14:44 7,6 C 7,2 C 76 % 1024,6 hPa 0,0 l/m 0 min 0 min 173 W/m 37,7 km/h (5 Bft)
04.03.2015 14:46 7,7 C 6,7 C 75 % 1024,5 hPa 0,0 l/m 0 min 0 min 154 W/m 39,7 km/h (6 Bft)
04.03.2015 14:48 7,7 C 6,7 C 75 % 1024,4 hPa 0,0 l/m 0 min 0 min 132 W/m 20,9 km/h (4 Bft)
04.03.2015 14:50 7,7 C 6,7 C 75 % 1024,3 hPa 0,0 l/m 0 min 2 min 123 W/m 23,0 km/h (4 Bft)
04.03.2015 14:52 7,6 C 6,1 C 74 % 1024,4 hPa 0,0 l/m 0 min 0 min 125 W/m 29,3 km/h (5 Bft)
04.03.2015 14:54 7,5 C 6,1 C 74 % 1024,3 hPa 0,0 l/m 0 min 2 min 102 W/m 27,2 km/h (4 Bft)
04.03.2015 14:56 7,4 C 5,6 C 74 % 1024,4 hPa 0,0 l/m 0 min 2 min 69 W/m 23,0 km/h (4 Bft)
04.03.2015 14:58 7,4 C 5,6 C 74 % 1024,5 hPa 0,0 l/m 0 min 2 min 57 W/m 29,3 km/h (5 Bft)
04.03.2015 15:00 7,3 C 5,6 C 75 % 1024,5 hPa 0,0 l/m 0 min 2 min 139 W/m 27,2 km/h (4 Bft)
04.03.2015 15:02 7,3 C 5,0 C 76 % 1024,6 hPa 0,0 l/m 2 min 2 min 229 W/m 25,1 km/h (4 Bft)
04.03.2015 15:04 7,3 C 5,0 C 77 % 1024,7 hPa 0,0 l/m 0 min 2 min 175 W/m 27,2 km/h (4 Bft)
04.03.2015 15:06 7,2 C 4,4 C 77 % 1024,7 hPa 0,0 l/m 0 min 2 min 153 W/m 27,2 km/h (4 Bft)
04.03.2015 15:08 7,2 C 4,4 C 76 % 1024,6 hPa 0,0 l/m 0 min 2 min 145 W/m 29,3 km/h (5 Bft)
04.03.2015 15:10 7,1 C 4,4 C 76 % 1024,6 hPa 0,0 l/m 0 min 2 min 127 W/m 31,4 km/h (5 Bft)
04.03.2015 15:12 7,1 C 4,4 C 76 % 1024,5 hPa 0,0 l/m 0 min 2 min 138 W/m 12,6 km/h (3 Bft)
04.03.2015 15:14 7,0 C 5,0 C 76 % 1024,6 hPa 0,0 l/m 0 min 2 min 162 W/m 25,1 km/h (4 Bft)
04.03.2015 15:16 7,0 C 5,0 C 77 % 1024,6 hPa 0,0 l/m 0 min 0 min 175 W/m 31,4 km/h (5 Bft)
04.03.2015 15:18 7,0 C 5,6 C 77 % 1024,9 hPa 0,0 l/m 2 min 0 min 218 W/m 25,1 km/h (4 Bft)
04.03.2015 15:20 7,1 C 5,0 C 78 % 1024,9 hPa 0,0 l/m 0 min 0 min 108 W/m 29,3 km/h (5 Bft)
04.03.2015 15:22 7,1 C 5,0 C 78 % 1025,0 hPa 0,0 l/m 0 min 2 min 69 W/m 20,9 km/h (4 Bft)
04.03.2015 15:24 7,0 C 4,4 C 77 % 1025,0 hPa 0,0 l/m 0 min 2 min 37 W/m 27,2 km/h (4 Bft)
04.03.2015 15:26 6,9 C 3,9 C 77 % 1025,1 hPa 0,2 l/m 0 min 2 min 27 W/m 27,2 km/h (4 Bft)
04.03.2015 15:28 6,8 C 3,3 C 78 % 1025,1 hPa 0,0 l/m 0 min 2 min 28 W/m 23,0 km/h (4 Bft)
04.03.2015 15:30 6,7 C 2,8 C 78 % 1025,1 hPa 0,0 l/m 0 min 2 min 32 W/m 29,3 km/h (5 Bft)
04.03.2015 15:32 6,6 C 2,8 C 79 % 1025,1 hPa 0,2 l/m 0 min 2 min 41 W/m 18,8 km/h (3 Bft)
04.03.2015 15:34 6,4 C 2,8 C 79 % 1025,1 hPa 0,0 l/m 0 min 2 min 72 W/m 20,9 km/h (4 Bft)
04.03.2015 15:36 6,3 C 3,3 C 80 % 1025,1 hPa 0,2 l/m 0 min 2 min 109 W/m 16,7 km/h (3 Bft)
04.03.2015 15:38 6,2 C 3,3 C 81 % 1025,1 hPa 0,0 l/m 0 min 2 min 159 W/m 16,7 km/h (3 Bft)
04.03.2015 15:40 6,1 C 3,9 C 81 % 1025,2 hPa 0,0 l/m 0 min 2 min 150 W/m 12,6 km/h (3 Bft)
04.03.2015 15:42 6,1 C 3,9 C 82 % 1025,2 hPa 0,0 l/m 0 min 2 min 127 W/m 16,7 km/h (3 Bft)
04.03.2015 15:44 6,0 C 3,9 C 83 % 1025,3 hPa 0,0 l/m 0 min 2 min 102 W/m 18,8 km/h (3 Bft)
04.03.2015 15:46 6,0 C 3,9 C 83 % 1025,3 hPa 0,0 l/m 0 min 2 min 85 W/m 20,9 km/h (4 Bft)
04.03.2015 15:48 5,9 C 3,9 C 83 % 1025,4 hPa 0,0 l/m 0 min 2 min 87 W/m 14,6 km/h (3 Bft)
04.03.2015 15:50 5,9 C 3,9 C 84 % 1025,3 hPa 0,0 l/m 0 min 2 min 114 W/m 25,1 km/h (4 Bft)
04.03.2015 15:52 5,9 C 3,9 C 84 % 1025,3 hPa 0,0 l/m 0 min 2 min 118 W/m 29,3 km/h (5 Bft)
04.03.2015 15:54 5,8 C 3,9 C 85 % 1025,3 hPa 0,0 l/m 0 min 2 min 128 W/m 27,2 km/h (4 Bft)
04.03.2015 15:56 5,8 C 3,9 C 85 % 1025,3 hPa 0,0 l/m 0 min 2 min 152 W/m 18,8 km/h (3 Bft)
04.03.2015 15:58 5,8 C 4,4 C 85 % 1025,4 hPa 0,0 l/m 2 min 0 min 252 W/m 23,0 km/h (4 Bft)
04.03.2015 16:00 5,9 C 4,4 C 86 % 1025,3 hPa 0,0 l/m 2 min 0 min 324 W/m 23,0 km/h (4 Bft)
04.03.2015 16:02 6,0 C 4,4 C 86 % 1025,4 hPa 0,0 l/m 2 min 0 min 336 W/m 29,3 km/h (5 Bft)
04.03.2015 16:04 6,1 C 4,4 C 86 % 1025,4 hPa 0,0 l/m 2 min 0 min 346 W/m 27,2 km/h (4 Bft)
04.03.2015 16:06 6,1 C 4,4 C 86 % 1025,5 hPa 0,0 l/m 2 min 0 min 192 W/m 39,7 km/h (6 Bft)
04.03.2015 16:08 6,1 C 4,4 C 86 % 1025,5 hPa 0,0 l/m 0 min 0 min 149 W/m 18,8 km/h (3 Bft)
04.03.2015 16:10 6,2 C 5,0 C 86 % 1025,4 hPa 0,0 l/m 2 min 2 min 226 W/m 16,7 km/h (3 Bft)
04.03.2015 16:12 6,3 C 5,0 C 86 % 1025,5 hPa 0,0 l/m 2 min 0 min 265 W/m 23,0 km/h (4 Bft)
04.03.2015 16:14 6,3 C 4,4 C 86 % 1025,5 hPa 0,0 l/m 2 min 0 min 155 W/m 23,0 km/h (4 Bft)
04.03.2015 16:16 6,4 C 4,4 C 85 % 1025,6 hPa 0,0 l/m 2 min 2 min 156 W/m 25,1 km/h (4 Bft)
04.03.2015 16:18 6,4 C 4,4 C 85 % 1025,6 hPa 0,0 l/m 0 min 2 min 102 W/m 23,0 km/h (4 Bft)
04.03.2015 16:20 6,4 C 3,9 C 85 % 1025,5 hPa 0,0 l/m 0 min 2 min 70 W/m 16,7 km/h (3 Bft)
04.03.2015 16:22 6,4 C 3,9 C 84 % 1025,5 hPa 0,0 l/m 0 min 2 min 54 W/m 23,0 km/h (4 Bft)
04.03.2015 16:24 6,3 C 3,9 C 84 % 1025,6 hPa 0,0 l/m 0 min 2 min 52 W/m 25,1 km/h (4 Bft)
04.03.2015 16:26 6,3 C 3,3 C 84 % 1025,7 hPa 0,0 l/m 0 min 2 min 72 W/m 33,5 km/h (5 Bft)
04.03.2015 16:28 6,2 C 3,3 C 84 % 1025,6 hPa 0,0 l/m 0 min 2 min 87 W/m 14,6 km/h (3 Bft)
04.03.2015 16:30 6,1 C 3,3 C 84 % 1025,6 hPa 0,0 l/m 2 min 2 min 159 W/m 18,8 km/h (3 Bft)
04.03.2015 16:32 6,1 C 3,3 C 84 % 1025,7 hPa 0,0 l/m 0 min 2 min 73 W/m 14,6 km/h (3 Bft)
04.03.2015 16:34 6,1 C 3,3 C 84 % 1025,7 hPa 0,0 l/m 0 min 2 min 59 W/m 23,0 km/h (4 Bft)
04.03.2015 16:36 6,0 C 3,3 C 85 % 1025,8 hPa 0,0 l/m 0 min 2 min 54 W/m 23,0 km/h (4 Bft)
04.03.2015 16:38 5,9 C 3,3 C 84 % 1025,7 hPa 0,0 l/m 0 min 2 min 52 W/m 18,8 km/h (3 Bft)
04.03.2015 16:40 5,8 C 3,3 C 84 % 1025,8 hPa 0,0 l/m 0 min 2 min 51 W/m 33,5 km/h (5 Bft)
04.03.2015 16:42 5,8 C 3,3 C 84 % 1025,8 hPa 0,0 l/m 0 min 0 min 60 W/m 18,8 km/h (3 Bft)
04.03.2015 16:44 5,7 C 3,3 C 84 % 1025,8 hPa 0,0 l/m 0 min 0 min 55 W/m 33,5 km/h (5 Bft)
04.03.2015 16:46 5,7 C 3,3 C 84 % 1025,9 hPa 0,0 l/m 0 min 0 min 51 W/m 16,7 km/h (3 Bft)
04.03.2015 16:48 5,7 C 3,3 C 84 % 1025,9 hPa 0,0 l/m 0 min 0 min 42 W/m 16,7 km/h (3 Bft)
04.03.2015 16:50 5,6 C 3,3 C 84 % 1025,9 hPa 0,0 l/m 0 min 0 min 40 W/m 18,8 km/h (3 Bft)
04.03.2015 16:52 5,6 C 3,3 C 84 % 1025,9 hPa 0,0 l/m 0 min 0 min 38 W/m 14,6 km/h (3 Bft)
04.03.2015 16:54 5,6 C 3,3 C 84 % 1026,0 hPa 0,0 l/m 0 min 0 min 40 W/m 18,8 km/h (3 Bft)
04.03.2015 16:56 5,5 C 2,8 C 84 % 1026,0 hPa 0,0 l/m 0 min 0 min 41 W/m 12,6 km/h (3 Bft)
04.03.2015 16:58 5,5 C 3,3 C 84 % 1026,1 hPa 0,0 l/m 0 min 0 min 51 W/m 25,1 km/h (4 Bft)
04.03.2015 17:00 5,4 C 3,3 C 84 % 1025,9 hPa 0,0 l/m 0 min 0 min 83 W/m 25,1 km/h (4 Bft)
04.03.2015 17:02 5,4 C 3,3 C 84 % 1026,0 hPa 0,0 l/m 2 min 0 min 100 W/m 31,4 km/h (5 Bft)
04.03.2015 17:04 5,4 C 3,3 C 84 % 1026,1 hPa 0,0 l/m 0 min 0 min 68 W/m 29,3 km/h (5 Bft)
04.03.2015 17:06 5,4 C 3,3 C 83 % 1026,0 hPa 0,0 l/m 0 min 0 min 51 W/m 29,3 km/h (5 Bft)
04.03.2015 17:08 5,4 C 3,3 C 83 % 1026,1 hPa 0,0 l/m 0 min 0 min 68 W/m 33,5 km/h (5 Bft)
04.03.2015 17:10 5,4 C 3,3 C 83 % 1026,2 hPa 0,0 l/m 0 min 0 min 50 W/m 31,4 km/h (5 Bft)
04.03.2015 17:12 5,4 C 3,3 C 83 % 1026,2 hPa 0,0 l/m 0 min 0 min 44 W/m 23,0 km/h (4 Bft)
04.03.2015 17:14 5,4 C 3,3 C 83 % 1026,2 hPa 0,0 l/m 0 min 0 min 44 W/m 31,4 km/h (5 Bft)
04.03.2015 17:16 5,4 C 2,8 C 83 % 1026,1 hPa 0,0 l/m 0 min 0 min 40 W/m 16,7 km/h (3 Bft)
04.03.2015 17:18 5,4 C 3,3 C 83 % 1026,1 hPa 0,0 l/m 0 min 0 min 49 W/m 20,9 km/h (4 Bft)
04.03.2015 17:20 5,4 C 3,3 C 83 % 1026,2 hPa 0,0 l/m 0 min 0 min 56 W/m 16,7 km/h (3 Bft)
04.03.2015 17:22 5,4 C 3,3 C 83 % 1026,2 hPa 0,0 l/m 2 min 0 min 68 W/m 25,1 km/h (4 Bft)
04.03.2015 17:24 5,4 C 3,3 C 83 % 1026,2 hPa 0,0 l/m 2 min 0 min 70 W/m 27,2 km/h (4 Bft)
04.03.2015 17:26 5,4 C 3,3 C 83 % 1026,2 hPa 0,0 l/m 2 min 0 min 65 W/m 18,8 km/h (3 Bft)
04.03.2015 17:28 5,4 C 3,3 C 83 % 1026,2 hPa 0,0 l/m 0 min 0 min 58 W/m 18,8 km/h (3 Bft)
04.03.2015 17:30 5,4 C 3,3 C 83 % 1026,3 hPa 0,0 l/m 2 min 0 min 58 W/m 27,2 km/h (4 Bft)
04.03.2015 17:32 5,4 C 3,3 C 83 % 1026,3 hPa 0,0 l/m 2 min 0 min 59 W/m 14,6 km/h (3 Bft)
04.03.2015 17:34 5,4 C 3,3 C 83 % 1026,3 hPa 0,0 l/m 2 min 0 min 60 W/m 23,0 km/h (4 Bft)
04.03.2015 17:36 5,4 C 3,3 C 83 % 1026,4 hPa 0,0 l/m 2 min 0 min 55 W/m 14,6 km/h (3 Bft)
04.03.2015 17:38 5,4 C 3,3 C 83 % 1026,5 hPa 0,0 l/m 2 min 0 min 49 W/m 20,9 km/h (4 Bft)
04.03.2015 17:40 5,4 C 3,3 C 83 % 1026,5 hPa 0,0 l/m 0 min 0 min 41 W/m 27,2 km/h (4 Bft)
04.03.2015 17:42 5,4 C 3,3 C 83 % 1026,5 hPa 0,0 l/m 0 min 0 min 34 W/m 18,8 km/h (3 Bft)
04.03.2015 17:44 5,4 C 3,3 C 83 % 1026,5 hPa 0,0 l/m 0 min 0 min 24 W/m 18,8 km/h (3 Bft)
04.03.2015 17:46 5,4 C 3,3 C 83 % 1026,6 hPa 0,0 l/m 0 min 0 min 19 W/m 20,9 km/h (4 Bft)
04.03.2015 17:48 5,4 C 3,3 C 83 % 1026,7 hPa 0,0 l/m 0 min 0 min 13 W/m 27,2 km/h (4 Bft)
04.03.2015 17:50 5,4 C 3,3 C 83 % 1026,7 hPa 0,0 l/m 0 min 0 min 10 W/m 25,1 km/h (4 Bft)
04.03.2015 17:52 5,4 C 3,3 C 83 % 1026,7 hPa 0,0 l/m 0 min 0 min 6 W/m 18,8 km/h (3 Bft)
04.03.2015 17:54 5,4 C 3,3 C 83 % 1026,8 hPa 0,0 l/m 0 min 0 min 5 W/m 16,7 km/h (3 Bft)
04.03.2015 17:56 5,4 C 3,3 C 83 % 1027,0 hPa 0,0 l/m 0 min 2 min 5 W/m 14,6 km/h (3 Bft)
04.03.2015 17:58 5,4 C 3,3 C 83 % 1027,0 hPa 0,0 l/m 0 min 2 min 8 W/m 20,9 km/h (4 Bft)
04.03.2015 18:00 5,5 C 3,3 C 83 % 1027,1 hPa 0,0 l/m 0 min 2 min 10 W/m 25,1 km/h (4 Bft)
04.03.2015 18:02 5,5 C 3,3 C 83 % 1027,0 hPa 0,0 l/m 0 min 2 min 11 W/m 12,6 km/h (3 Bft)
04.03.2015 18:06 5,4 C 3,3 C 83 % 1027,1 hPa 0,0 l/m 0 min 2 min 10 W/m 16,7 km/h (3 Bft)
04.03.2015 18:08 5,4 C 3,3 C 83 % 1027,1 hPa 0,0 l/m 2 min 2 min 12 W/m 16,7 km/h (3 Bft)
04.03.2015 18:10 5,4 C 3,3 C 83 % 1027,0 hPa 0,0 l/m 0 min 0 min 12 W/m 25,1 km/h (4 Bft)
04.03.2015 18:12 5,4 C 3,3 C 83 % 1027,1 hPa 0,0 l/m 0 min 0 min 10 W/m 16,7 km/h (3 Bft)
04.03.2015 18:14 5,4 C 3,3 C 83 % 1027,2 hPa 0,0 l/m 0 min 0 min 6 W/m 16,7 km/h (3 Bft)
04.03.2015 18:16 5,4 C 3,3 C 83 % 1027,3 hPa 0,0 l/m 0 min 2 min 1 W/m 16,7 km/h (3 Bft)
04.03.2015 18:18 5,4 C 3,3 C 83 % 1027,2 hPa 0,0 l/m 0 min 0 min 0 W/m 14,6 km/h (3 Bft)
04.03.2015 18:20 5,4 C 3,3 C 83 % 1027,3 hPa 0,0 l/m 0 min 0 min 0 W/m 14,6 km/h (3 Bft)
04.03.2015 18:22 5,4 C 3,3 C 83 % 1027,2 hPa 0,0 l/m 0 min 2 min 0 W/m 23,0 km/h (4 Bft)
04.03.2015 18:24 5,4 C 3,3 C 83 % 1027,3 hPa 0,0 l/m 0 min 2 min 0 W/m 12,6 km/h (3 Bft)
04.03.2015 18:26 5,4 C 3,3 C 83 % 1027,4 hPa 0,0 l/m 0 min 2 min 0 W/m 14,6 km/h (3 Bft)
04.03.2015 18:28 5,4 C 3,3 C 83 % 1027,4 hPa 0,0 l/m 0 min 2 min 0 W/m 14,6 km/h (3 Bft)
04.03.2015 18:30 5,4 C 2,8 C 83 % 1027,7 hPa 0,2 l/m 0 min 2 min 0 W/m 43,9 km/h (6 Bft)
04.03.2015 18:32 5,4 C 2,8 C 83 % 1027,7 hPa 0,0 l/m 0 min 2 min 0 W/m 31,4 km/h (5 Bft)
04.03.2015 18:34 5,4 C 2,8 C 83 % 1027,8 hPa 0,2 l/m 0 min 2 min 0 W/m 41,8 km/h (6 Bft)
04.03.2015 18:36 5,4 C 2,8 C 84 % 1027,8 hPa 0,0 l/m 0 min 2 min 0 W/m 33,5 km/h (5 Bft)
04.03.2015 18:38 5,3 C 2,8 C 84 % 1027,9 hPa 0,0 l/m 0 min 2 min 0 W/m 27,2 km/h (4 Bft)
04.03.2015 18:40 5,3 C 2,8 C 84 % 1027,9 hPa 0,0 l/m 0 min 2 min 0 W/m 18,8 km/h (3 Bft)
04.03.2015 18:42 5,3 C 2,8 C 85 % 1027,9 hPa 0,0 l/m 0 min 2 min 0 W/m 31,4 km/h (5 Bft)
04.03.2015 18:44 5,2 C 2,8 C 85 % 1028,0 hPa 0,0 l/m 0 min 2 min 0 W/m 35,6 km/h (5 Bft)
04.03.2015 18:46 5,1 C 2,2 C 85 % 1028,1 hPa 0,0 l/m 0 min 2 min 0 W/m 31,4 km/h (5 Bft)
04.03.2015 18:48 5,1 C 2,2 C 85 % 1028,1 hPa 0,2 l/m 0 min 2 min 0 W/m 23,0 km/h (4 Bft)
04.03.2015 18:50 5,0 C 2,2 C 85 % 1028,2 hPa 0,0 l/m 0 min 2 min 0 W/m 16,7 km/h (3 Bft)
04.03.2015 18:52 4,9 C 2,2 C 86 % 1028,1 hPa 0,0 l/m 0 min 2 min 0 W/m 18,8 km/h (3 Bft)
04.03.2015 18:54 4,8 C 2,2 C 86 % 1028,1 hPa 0,0 l/m 0 min 2 min 0 W/m 16,7 km/h (3 Bft)
04.03.2015 18:56 4,8 C 2,2 C 86 % 1028,0 hPa 0,0 l/m 0 min 2 min 0 W/m 10,5 km/h (2 Bft)
04.03.2015 18:58 4,7 C 2,2 C 86 % 1028,1 hPa 0,0 l/m 0 min 2 min 0 W/m 8,4 km/h (2 Bft)
04.03.2015 19:00 4,7 C 2,2 C 86 % 1028,0 hPa 0,0 l/m 0 min 2 min 0 W/m 10,5 km/h (2 Bft)
04.03.2015 19:02 4,6 C 2,2 C 86 % 1028,1 hPa 0,0 l/m 0 min 2 min 0 W/m 6,3 km/h (2 Bft)
04.03.2015 19:04 4,6 C 2,2 C 87 % 1028,1 hPa 0,0 l/m 0 min 2 min 0 W/m 12,6 km/h (3 Bft)
04.03.2015 19:06 4,6 C 2,2 C 87 % 1028,1 hPa 0,0 l/m 0 min 2 min 0 W/m 10,5 km/h (2 Bft)
04.03.2015 19:08 4,5 C 2,2 C 87 % 1028,1 hPa 0,0 l/m 0 min 2 min 0 W/m 8,4 km/h (2 Bft)
04.03.2015 19:10 4,4 C 2,2 C 87 % 1028,1 hPa 0,0 l/m 0 min 2 min 0 W/m 8,4 km/h (2 Bft)
04.03.2015 19:12 4,4 C 2,2 C 87 % 1028,1 hPa 0,0 l/m 0 min 0 min 0 W/m 8,4 km/h (2 Bft)
04.03.2015 19:14 4,4 C 2,2 C 88 % 1028,1 hPa 0,0 l/m 0 min 0 min 0 W/m 10,5 km/h (2 Bft)
04.03.2015 19:16 4,4 C 2,2 C 88 % 1028,1 hPa 0,0 l/m 0 min 0 min 0 W/m 12,6 km/h (3 Bft)
04.03.2015 19:18 4,3 C 2,2 C 88 % 1028,1 hPa 0,0 l/m 0 min 0 min 0 W/m 8,4 km/h (2 Bft)
04.03.2015 19:20 4,3 C 2,2 C 88 % 1028,2 hPa 0,0 l/m 0 min 0 min 0 W/m 12,6 km/h (3 Bft)
04.03.2015 19:22 4,3 C 2,2 C 88 % 1028,2 hPa 0,0 l/m 0 min 2 min 0 W/m 10,5 km/h (2 Bft)
04.03.2015 19:24 4,3 C 2,2 C 89 % 1028,2 hPa 0,0 l/m 0 min 0 min 0 W/m 10,5 km/h (2 Bft)
04.03.2015 19:26 4,3 C 2,8 C 89 % 1028,3 hPa 0,0 l/m 0 min 2 min 0 W/m 16,7 km/h (3 Bft)
04.03.2015 19:28 4,3 C 2,8 C 89 % 1028,2 hPa 0,0 l/m 0 min 0 min 0 W/m 8,4 km/h (2 Bft)
04.03.2015 19:30 4,3 C 2,8 C 89 % 1028,4 hPa 0,0 l/m 0 min 2 min 0 W/m 12,6 km/h (3 Bft)
04.03.2015 19:32 4,3 C 2,8 C 90 % 1028,4 hPa 0,0 l/m 0 min 2 min 0 W/m 14,6 km/h (3 Bft)
04.03.2015 19:34 4,3 C 2,8 C 90 % 1028,4 hPa 0,2 l/m 0 min 2 min 0 W/m 16,7 km/h (3 Bft)
04.03.2015 19:36 4,3 C 2,8 C 90 % 1028,4 hPa 0,0 l/m 0 min 2 min 0 W/m 16,7 km/h (3 Bft)
04.03.2015 19:38 4,3 C 2,8 C 90 % 1028,4 hPa 0,0 l/m 0 min 2 min 0 W/m 12,6 km/h (3 Bft)
04.03.2015 19:40 4,3 C 2,8 C 90 % 1028,4 hPa 0,0 l/m 0 min 2 min 0 W/m 16,7 km/h (3 Bft)
04.03.2015 19:42 4,3 C 2,8 C 90 % 1028,4 hPa 0,0 l/m 0 min 2 min 0 W/m 18,8 km/h (3 Bft)
04.03.2015 19:44 4,3 C 2,8 C 90 % 1028,5 hPa 0,0 l/m 0 min 2 min 0 W/m 18,8 km/h (3 Bft)
04.03.2015 19:46 4,3 C 2,8 C 91 % 1028,5 hPa 0,0 l/m 0 min 2 min 0 W/m 20,9 km/h (4 Bft)
04.03.2015 19:48 4,3 C 2,8 C 91 % 1028,5 hPa 0,0 l/m 0 min 2 min 0 W/m 10,5 km/h (2 Bft)
04.03.2015 19:50 4,3 C 2,8 C 91 % 1028,6 hPa 0,0 l/m 0 min 2 min 0 W/m 46,0 km/h (6 Bft)
04.03.2015 19:52 4,3 C 2,8 C 91 % 1028,5 hPa 0,0 l/m 0 min 2 min 0 W/m 25,1 km/h (4 Bft)
04.03.2015 19:54 4,4 C 2,8 C 91 % 1028,6 hPa 0,0 l/m 0 min 2 min 0 W/m 16,7 km/h (3 Bft)
04.03.2015 19:56 4,4 C 2,8 C 91 % 1028,7 hPa 0,0 l/m 0 min 2 min 0 W/m 29,3 km/h (5 Bft)
04.03.2015 19:58 4,4 C 2,8 C 91 % 1028,7 hPa 0,0 l/m 0 min 2 min 0 W/m 27,2 km/h (4 Bft)
04.03.2015 20:00 4,4 C 2,8 C 91 % 1028,7 hPa 0,0 l/m 0 min 2 min 0 W/m 31,4 km/h (5 Bft)
04.03.2015 20:02 4,4 C 2,8 C 91 % 1028,7 hPa 0,0 l/m 0 min 2 min 0 W/m 31,4 km/h (5 Bft)
04.03.2015 20:04 4,4 C 2,8 C 91 % 1028,8 hPa 0,0 l/m 0 min 0 min 0 W/m 23,0 km/h (4 Bft)
04.03.2015 20:06 4,4 C 2,8 C 91 % 1028,8 hPa 0,0 l/m 0 min 0 min 0 W/m 20,9 km/h (4 Bft)
04.03.2015 20:08 4,5 C 2,8 C 91 % 1028,8 hPa 0,0 l/m 0 min 0 min 0 W/m 18,8 km/h (3 Bft)
04.03.2015 20:10 4,5 C 2,8 C 91 % 1028,8 hPa 0,0 l/m 0 min 0 min 0 W/m 20,9 km/h (4 Bft)
04.03.2015 20:12 4,5 C 2,8 C 91 % 1028,8 hPa 0,0 l/m 0 min 0 min 0 W/m 29,3 km/h (5 Bft)
04.03.2015 20:14 4,6 C 2,8 C 91 % 1028,8 hPa 0,0 l/m 0 min 0 min 0 W/m 25,1 km/h (4 Bft)
04.03.2015 20:16 4,6 C 2,8 C 90 % 1028,8 hPa 0,0 l/m 0 min 0 min 0 W/m 20,9 km/h (4 Bft)
04.03.2015 20:18 4,6 C 2,8 C 90 % 1028,8 hPa 0,0 l/m 0 min 0 min 0 W/m 23,0 km/h (4 Bft)
04.03.2015 20:20 4,6 C 2,8 C 90 % 1028,7 hPa 0,0 l/m 0 min 0 min 0 W/m 16,7 km/h (3 Bft)
04.03.2015 20:22 4,6 C 2,8 C 90 % 1028,7 hPa 0,0 l/m 0 min 0 min 0 W/m 18,8 km/h (3 Bft)
04.03.2015 20:24 4,6 C 2,8 C 90 % 1028,9 hPa 0,0 l/m 0 min 0 min 0 W/m 10,5 km/h (2 Bft)
04.03.2015 20:26 4,6 C 2,8 C 90 % 1029,0 hPa 0,0 l/m 0 min 0 min 0 W/m 23,0 km/h (4 Bft)
04.03.2015 20:28 4,6 C 2,8 C 90 % 1028,9 hPa 0,0 l/m 0 min 0 min 0 W/m 23,0 km/h (4 Bft)
04.03.2015 20:30 4,6 C 2,2 C 90 % 1028,9 hPa 0,0 l/m 0 min 0 min 0 W/m 25,1 km/h (4 Bft)
04.03.2015 20:32 4,6 C 2,2 C 90 % 1028,9 hPa 0,0 l/m 0 min 0 min 0 W/m 12,6 km/h (3 Bft)
04.03.2015 20:34 4,6 C 2,2 C 90 % 1028,9 hPa 0,0 l/m 0 min 0 min 0 W/m 20,9 km/h (4 Bft)
04.03.2015 20:36 4,6 C 2,2 C 90 % 1029,0 hPa 0,0 l/m 0 min 0 min 0 W/m 25,1 km/h (4 Bft)
04.03.2015 20:38 4,6 C 2,2 C 90 % 1029,0 hPa 0,0 l/m 0 min 0 min 0 W/m 18,8 km/h (3 Bft)
04.03.2015 20:40 4,6 C 2,8 C 90 % 1029,3 hPa 0,0 l/m 0 min 0 min 0 W/m 14,6 km/h (3 Bft)
04.03.2015 20:42 4,5 C 2,8 C 90 % 1029,2 hPa 0,0 l/m 0 min 0 min 0 W/m 20,9 km/h (4 Bft)
04.03.2015 20:44 4,6 C 2,8 C 90 % 1029,3 hPa 0,0 l/m 0 min 0 min 0 W/m 23,0 km/h (4 Bft)
04.03.2015 20:46 4,6 C 2,8 C 90 % 1029,3 hPa 0,0 l/m 0 min 0 min 0 W/m 20,9 km/h (4 Bft)
04.03.2015 20:48 4,6 C 2,8 C 90 % 1029,3 hPa 0,0 l/m 0 min 0 min 0 W/m 25,1 km/h (4 Bft)
04.03.2015 20:50 4,5 C 2,8 C 90 % 1029,2 hPa 0,0 l/m 0 min 0 min 0 W/m 25,1 km/h (4 Bft)
04.03.2015 20:52 4,5 C 2,2 C 90 % 1029,2 hPa 0,0 l/m 0 min 0 min 0 W/m 20,9 km/h (4 Bft)
04.03.2015 20:54 4,5 C 2,8 C 90 % 1029,2 hPa 0,0 l/m 0 min 0 min 0 W/m 20,9 km/h (4 Bft)
04.03.2015 20:56 4,5 C 2,8 C 90 % 1029,4 hPa 0,0 l/m 0 min 0 min 0 W/m 25,1 km/h (4 Bft)
04.03.2015 20:58 4,5 C 2,8 C 90 % 1029,5 hPa 0,0 l/m 0 min 0 min 0 W/m 20,9 km/h (4 Bft)
04.03.2015 21:00 4,5 C 2,8 C 90 % 1029,5 hPa 0,0 l/m 0 min 0 min 0 W/m 27,2 km/h (4 Bft)
04.03.2015 21:02 4,5 C 2,8 C 90 % 1029,6 hPa 0,0 l/m 0 min 2 min 0 W/m 29,3 km/h (5 Bft)
04.03.2015 21:04 4,5 C 2,2 C 90 % 1029,6 hPa 0,0 l/m 0 min 2 min 0 W/m 23,0 km/h (4 Bft)
04.03.2015 21:06 4,5 C 2,2 C 90 % 1029,6 hPa 0,0 l/m 0 min 0 min 0 W/m 20,9 km/h (4 Bft)
04.03.2015 21:08 4,4 C 2,2 C 90 % 1029,6 hPa 0,0 l/m 0 min 0 min 0 W/m 29,3 km/h (5 Bft)
04.03.2015 21:10 4,4 C 2,2 C 90 % 1029,6 hPa 0,0 l/m 0 min 0 min 0 W/m 16,7 km/h (3 Bft)
04.03.2015 21:12 4,4 C 2,2 C 90 % 1029,7 hPa 0,0 l/m 0 min 0 min 0 W/m 18,8 km/h (3 Bft)
04.03.2015 21:14 4,4 C 2,2 C 90 % 1029,7 hPa 0,0 l/m 0 min 0 min 0 W/m 16,7 km/h (3 Bft)
04.03.2015 21:16 4,4 C 2,2 C 90 % 1029,7 hPa 0,0 l/m 0 min 0 min 0 W/m 20,9 km/h (4 Bft)
04.03.2015 21:18 4,4 C 2,2 C 90 % 1029,7 hPa 0,0 l/m 0 min 0 min 0 W/m 16,7 km/h (3 Bft)
04.03.2015 21:20 4,4 C 2,2 C 90 % 1029,7 hPa 0,0 l/m 0 min 0 min 0 W/m 20,9 km/h (4 Bft)
04.03.2015 21:22 4,4 C 2,2 C 90 % 1029,7 hPa 0,0 l/m 0 min 0 min 0 W/m 14,6 km/h (3 Bft)
04.03.2015 21:24 4,3 C 2,2 C 90 % 1029,8 hPa 0,0 l/m 0 min 0 min 0 W/m 20,9 km/h (4 Bft)
04.03.2015 21:26 4,3 C 2,2 C 90 % 1029,8 hPa 0,0 l/m 0 min 0 min 0 W/m 18,8 km/h (3 Bft)
04.03.2015 21:28 4,3 C 2,2 C 90 % 1029,8 hPa 0,0 l/m 0 min 0 min 0 W/m 18,8 km/h (3 Bft)
04.03.2015 21:30 4,3 C 2,2 C 90 % 1029,8 hPa 0,0 l/m 0 min 0 min 0 W/m 23,0 km/h (4 Bft)
04.03.2015 21:32 4,3 C 2,2 C 90 % 1029,9 hPa 0,0 l/m 0 min 0 min 0 W/m 18,8 km/h (3 Bft)
04.03.2015 21:34 4,3 C 2,2 C 90 % 1030,0 hPa 0,0 l/m 0 min 0 min 0 W/m 20,9 km/h (4 Bft)
04.03.2015 21:36 4,3 C 2,8 C 90 % 1030,0 hPa 0,0 l/m 0 min 0 min 0 W/m 23,0 km/h (4 Bft)
04.03.2015 21:38 4,3 C 2,8 C 90 % 1030,0 hPa 0,0 l/m 0 min 0 min 0 W/m 18,8 km/h (3 Bft)
04.03.2015 21:40 4,3 C 2,8 C 90 % 1030,0 hPa 0,0 l/m 0 min 0 min 0 W/m 23,0 km/h (4 Bft)
04.03.2015 21:42 4,3 C 2,8 C 90 % 1030,1 hPa 0,0 l/m 0 min 0 min 0 W/m 18,8 km/h (3 Bft)
04.03.2015 21:44 4,3 C 2,8 C 90 % 1030,1 hPa 0,0 l/m 0 min 0 min 0 W/m 14,6 km/h (3 Bft)
04.03.2015 21:46 4,3 C 2,8 C 90 % 1030,1 hPa 0,0 l/m 0 min 0 min 0 W/m 18,8 km/h (3 Bft)
04.03.2015 21:48 4,3 C 2,8 C 90 % 1030,2 hPa 0,0 l/m 0 min 0 min 0 W/m 23,0 km/h (4 Bft)
04.03.2015 21:50 4,3 C 2,8 C 90 % 1030,3 hPa 0,0 l/m 0 min 0 min 0 W/m 31,4 km/h (5 Bft)
04.03.2015 21:52 4,3 C 2,8 C 90 % 1030,3 hPa 0,0 l/m 0 min 0 min 0 W/m 18,8 km/h (3 Bft)
04.03.2015 21:54 4,3 C 2,8 C 90 % 1030,4 hPa 0,0 l/m 0 min 0 min 0 W/m 16,7 km/h (3 Bft)
04.03.2015 21:56 4,3 C 2,8 C 90 % 1030,3 hPa 0,0 l/m 0 min 0 min 0 W/m 20,9 km/h (4 Bft)
04.03.2015 21:58 4,3 C 2,8 C 90 % 1030,4 hPa 0,0 l/m 0 min 0 min 0 W/m 25,1 km/h (4 Bft)
04.03.2015 22:00 4,3 C 2,8 C 90 % 1030,4 hPa 0,0 l/m 0 min 0 min 0 W/m 20,9 km/h (4 Bft)
04.03.2015 22:02 4,3 C 2,8 C 90 % 1030,3 hPa 0,0 l/m 0 min 0 min 0 W/m 23,0 km/h (4 Bft)
04.03.2015 22:04 4,3 C 2,8 C 90 % 1030,4 hPa 0,0 l/m 0 min 0 min 0 W/m 23,0 km/h (4 Bft)
04.03.2015 22:06 4,3 C 2,2 C 90 % 1030,5 hPa 0,0 l/m 0 min 0 min 0 W/m 29,3 km/h (5 Bft)
04.03.2015 22:08 4,4 C 2,2 C 90 % 1030,6 hPa 0,0 l/m 0 min 0 min 0 W/m 25,1 km/h (4 Bft)
04.03.2015 22:10 4,3 C 2,2 C 90 % 1030,7 hPa 0,0 l/m 0 min 0 min 0 W/m 23,0 km/h (4 Bft)
04.03.2015 22:12 4,3 C 2,2 C 90 % 1030,7 hPa 0,0 l/m 0 min 0 min 0 W/m 20,9 km/h (4 Bft)
04.03.2015 22:14 4,3 C 2,2 C 90 % 1030,7 hPa 0,0 l/m 0 min 0 min 0 W/m 16,7 km/h (3 Bft)
04.03.2015 22:16 4,3 C 2,2 C 90 % 1030,7 hPa 0,0 l/m 0 min 0 min 0 W/m 27,2 km/h (4 Bft)
04.03.2015 22:18 4,3 C 2,2 C 90 % 1030,7 hPa 0,0 l/m 0 min 0 min 0 W/m 18,8 km/h (3 Bft)
04.03.2015 22:20 4,3 C 2,2 C 90 % 1030,7 hPa 0,0 l/m 0 min 0 min 0 W/m 23,0 km/h (4 Bft)
04.03.2015 22:22 4,3 C 2,2 C 90 % 1030,8 hPa 0,0 l/m 0 min 0 min 0 W/m 25,1 km/h (4 Bft)
04.03.2015 22:24 4,3 C 2,2 C 90 % 1030,9 hPa 0,0 l/m 0 min 0 min 0 W/m 23,0 km/h (4 Bft)
04.03.2015 22:26 4,3 C 2,8 C 90 % 1030,9 hPa 0,0 l/m 0 min 0 min 0 W/m 29,3 km/h (5 Bft)
04.03.2015 22:28 4,3 C 2,8 C 90 % 1030,9 hPa 0,0 l/m 0 min 0 min 0 W/m 16,7 km/h (3 Bft)
04.03.2015 22:30 4,3 C 2,8 C 91 % 1030,7 hPa 0,0 l/m 0 min 0 min 0 W/m 16,7 km/h (3 Bft)
04.03.2015 22:32 4,3 C 2,8 C 91 % 1030,7 hPa 0,0 l/m 0 min 0 min 0 W/m 18,8 km/h (3 Bft)
04.03.2015 22:34 4,3 C 2,8 C 91 % 1030,8 hPa 0,0 l/m 0 min 0 min 0 W/m 18,8 km/h (3 Bft)
04.03.2015 22:36 4,3 C 2,8 C 91 % 1030,8 hPa 0,0 l/m 0 min 0 min 0 W/m 14,6 km/h (3 Bft)
04.03.2015 22:38 4,3 C 2,8 C 91 % 1030,8 hPa 0,0 l/m 0 min 0 min 0 W/m 16,7 km/h (3 Bft)
04.03.2015 22:40 4,3 C 2,8 C 91 % 1031,0 hPa 0,0 l/m 0 min 0 min 0 W/m 25,1 km/h (4 Bft)
04.03.2015 22:42 4,3 C 2,8 C 91 % 1031,1 hPa 0,0 l/m 0 min 0 min 0 W/m 23,0 km/h (4 Bft)
04.03.2015 22:44 4,3 C 2,8 C 91 % 1031,3 hPa 0,0 l/m 0 min 0 min 0 W/m 23,0 km/h (4 Bft)
04.03.2015 22:46 4,3 C 2,8 C 91 % 1031,2 hPa 0,0 l/m 0 min 0 min 0 W/m 20,9 km/h (4 Bft)
04.03.2015 22:48 4,3 C 2,8 C 91 % 1031,2 hPa 0,0 l/m 0 min 0 min 0 W/m 20,9 km/h (4 Bft)
04.03.2015 22:50 4,3 C 2,8 C 91 % 1031,3 hPa 0,0 l/m 0 min 0 min 0 W/m 18,8 km/h (3 Bft)
04.03.2015 22:52 4,3 C 2,8 C 91 % 1031,3 hPa 0,0 l/m 0 min 0 min 0 W/m 20,9 km/h (4 Bft)
04.03.2015 22:54 4,3 C 2,8 C 91 % 1031,3 hPa 0,0 l/m 0 min 0 min 0 W/m 18,8 km/h (3 Bft)
04.03.2015 22:56 4,3 C 2,8 C 91 % 1031,3 hPa 0,0 l/m 0 min 0 min 0 W/m 18,8 km/h (3 Bft)
04.03.2015 22:58 4,3 C 2,8 C 91 % 1031,5 hPa 0,0 l/m 0 min 0 min 0 W/m 14,6 km/h (3 Bft)
04.03.2015 23:00 4,3 C 2,8 C 91 % 1031,5 hPa 0,0 l/m 0 min 0 min 0 W/m 18,8 km/h (3 Bft)
04.03.2015 23:02 4,3 C 2,8 C 91 % 1031,6 hPa 0,0 l/m 0 min 0 min 0 W/m 16,7 km/h (3 Bft)
04.03.2015 23:04 4,3 C 2,8 C 91 % 1031,5 hPa 0,0 l/m 0 min 0 min 0 W/m 14,6 km/h (3 Bft)
04.03.2015 23:06 4,3 C 2,8 C 91 % 1031,5 hPa 0,0 l/m 0 min 0 min 0 W/m 20,9 km/h (4 Bft)
04.03.2015 23:08 4,3 C 2,8 C 91 % 1031,6 hPa 0,0 l/m 0 min 0 min 0 W/m 14,6 km/h (3 Bft)
04.03.2015 23:10 4,3 C 2,8 C 91 % 1031,6 hPa 0,0 l/m 0 min 0 min 0 W/m 14,6 km/h (3 Bft)
04.03.2015 23:12 4,3 C 2,8 C 91 % 1031,7 hPa 0,0 l/m 0 min 0 min 0 W/m 23,0 km/h (4 Bft)
04.03.2015 23:14 4,3 C 2,8 C 91 % 1031,7 hPa 0,0 l/m 0 min 0 min 0 W/m 20,9 km/h (4 Bft)
04.03.2015 23:16 4,3 C 2,8 C 91 % 1031,6 hPa 0,0 l/m 0 min 0 min 0 W/m 14,6 km/h (3 Bft)
04.03.2015 23:18 4,3 C 2,8 C 91 % 1031,7 hPa 0,0 l/m 0 min 0 min 0 W/m 18,8 km/h (3 Bft)
04.03.2015 23:20 4,3 C 2,8 C 91 % 1031,7 hPa 0,0 l/m 0 min 0 min 0 W/m 16,7 km/h (3 Bft)
04.03.2015 23:22 4,3 C 2,8 C 91 % 1031,7 hPa 0,0 l/m 0 min 0 min 0 W/m 14,6 km/h (3 Bft)
04.03.2015 23:24 4,3 C 2,8 C 91 % 1031,7 hPa 0,0 l/m 0 min 0 min 0 W/m 12,6 km/h (3 Bft)
04.03.2015 23:26 4,3 C 2,8 C 91 % 1031,7 hPa 0,0 l/m 0 min 0 min 0 W/m 14,6 km/h (3 Bft)
04.03.2015 23:28 4,3 C 2,8 C 91 % 1031,8 hPa 0,0 l/m 0 min 0 min 0 W/m 20,9 km/h (4 Bft)
04.03.2015 23:30 4,3 C 2,8 C 91 % 1031,7 hPa 0,0 l/m 0 min 0 min 0 W/m 16,7 km/h (3 Bft)
04.03.2015 23:32 4,3 C 2,8 C 91 % 1031,8 hPa 0,0 l/m 0 min 0 min 0 W/m 18,8 km/h (3 Bft)
04.03.2015 23:34 4,3 C 2,8 C 91 % 1031,8 hPa 0,0 l/m 0 min 0 min 0 W/m 16,7 km/h (3 Bft)
04.03.2015 23:36 4,3 C 2,8 C 91 % 1031,8 hPa 0,0 l/m 0 min 0 min 0 W/m 14,6 km/h (3 Bft)
04.03.2015 23:38 4,3 C 2,8 C 91 % 1031,8 hPa 0,0 l/m 0 min 0 min 0 W/m 20,9 km/h (4 Bft)
04.03.2015 23:40 4,3 C 2,8 C 91 % 1031,8 hPa 0,0 l/m 0 min 0 min 0 W/m 14,6 km/h (3 Bft)
04.03.2015 23:42 4,3 C 2,8 C 91 % 1031,9 hPa 0,0 l/m 0 min 0 min 0 W/m 14,6 km/h (3 Bft)
04.03.2015 23:44 4,4 C 2,8 C 91 % 1031,9 hPa 0,0 l/m 0 min 0 min 0 W/m 23,0 km/h (4 Bft)
04.03.2015 23:46 4,4 C 2,8 C 91 % 1032,0 hPa 0,0 l/m 0 min 0 min 0 W/m 16,7 km/h (3 Bft)
04.03.2015 23:48 4,4 C 2,8 C 91 % 1032,1 hPa 0,0 l/m 0 min 0 min 0 W/m 20,9 km/h (4 Bft)
04.03.2015 23:50 4,4 C 2,8 C 91 % 1032,2 hPa 0,0 l/m 0 min 0 min 0 W/m 16,7 km/h (3 Bft)
04.03.2015 23:52 4,4 C 2,8 C 91 % 1032,1 hPa 0,0 l/m 0 min 0 min 0 W/m 16,7 km/h (3 Bft)
04.03.2015 23:54 4,4 C 2,8 C 91 % 1032,2 hPa 0,0 l/m 0 min 0 min 0 W/m 12,6 km/h (3 Bft)
04.03.2015 23:56 4,4 C 2,8 C 91 % 1032,2 hPa 0,0 l/m 0 min 0 min 0 W/m 18,8 km/h (3 Bft)
04.03.2015 23:58 4,4 C 2,8 C 92 % 1032,2 hPa 0,0 l/m 0 min 0 min 0 W/m 16,7 km/h (3 Bft)
_ Min-Zeit 07:10 05:18 14:52 00:00 - - - - 19:02
Minimum _ 1,4 C 0,0 C 74 % 1018,7 hPa - - - - 6,3 km/h (2 Bft)
_ Max-Zeit 14:46 14:38 00:58 23:50 09:48 07:26 13:24 13:02 19:50
Maximum _ 7,7 C 8,9 C 92 % 1032,2 hPa 0,2 l/m 2 min 2 min 673 W/m 46,0 km/h
NW (6 Bft)
Durchschnitt _ 4,2 C 2,6 C 87 % 1024,2 hPa #1,6 l/m #4:28 h #3:28 h 170 W/m 21,0 km/h (4 Bft)
© 2015 W. Hausmann